Wetterdaten: Mittwoch, 06.03.2013
Datum Zeit Temp. Aussen +5cm Feuchte Auss Luftdruck Regen Sonnenschein Regendauer UV Solar Windben
06.03.2013 00:00 7,1 C 5,1 C 72 % 1006,0 hPa 0,0 l/m 0 min 0 min 0,0 UV-I 0 W/m 7,7 km/h (2 Bft)
06.03.2013 00:02 7,1 C 5,1 C 72 % 1006,0 hPa 0,0 l/m 0 min 0 min 0,0 UV-I 0 W/m 10,3 km/h (2 Bft)
06.03.2013 00:06 7,1 C 5,1 C 72 % 1006,0 hPa 0,0 l/m 0 min 0 min 0,0 UV-I 0 W/m 12,9 km/h (3 Bft)
06.03.2013 00:08 7,1 C 5,1 C 72 % 1006,0 hPa 0,0 l/m 0 min 0 min 0,0 UV-I 0 W/m 0,0 km/h (0 Bft)
06.03.2013 00:10 7,1 C 5,1 C 72 % 1006,0 hPa 0,0 l/m 0 min 0 min 0,0 UV-I 0 W/m 7,7 km/h (2 Bft)
06.03.2013 00:12 7,1 C 5,1 C 72 % 1006,0 hPa 0,0 l/m 0 min 0 min 0,0 UV-I 0 W/m 10,3 km/h (2 Bft)
06.03.2013 00:14 7,1 C 5,1 C 72 % 1006,0 hPa 0,0 l/m 0 min 0 min 0,0 UV-I 0 W/m 10,3 km/h (2 Bft)
06.03.2013 00:16 7,1 C 5,1 C 72 % 1006,0 hPa 0,0 l/m 0 min 0 min 0,0 UV-I 0 W/m 7,7 km/h (2 Bft)
06.03.2013 00:18 7,0 C 5,1 C 72 % 1005,9 hPa 0,0 l/m 0 min 0 min 0,0 UV-I 0 W/m 12,9 km/h (3 Bft)
06.03.2013 00:20 7,0 C 5,1 C 72 % 1006,0 hPa 0,0 l/m 0 min 0 min 0,0 UV-I 0 W/m 7,7 km/h (2 Bft)
06.03.2013 00:22 7,0 C 5,1 C 72 % 1006,0 hPa 0,0 l/m 0 min 0 min 0,0 UV-I 0 W/m 7,7 km/h (2 Bft)
06.03.2013 00:24 7,0 C 5,1 C 72 % 1005,9 hPa 0,0 l/m 0 min 0 min 0,0 UV-I 0 W/m 7,7 km/h (2 Bft)
06.03.2013 00:26 7,0 C 5,1 C 72 % 1005,9 hPa 0,0 l/m 0 min 0 min 0,0 UV-I 0 W/m 7,7 km/h (2 Bft)
06.03.2013 00:28 7,0 C 5,1 C 72 % 1005,9 hPa 0,0 l/m 0 min 0 min 0,0 UV-I 0 W/m 10,3 km/h (2 Bft)
06.03.2013 00:30 7,0 C 5,1 C 71 % 1005,9 hPa 0,0 l/m 0 min 0 min 0,0 UV-I 0 W/m 10,3 km/h (2 Bft)
06.03.2013 00:32 7,0 C 5,1 C 71 % 1005,8 hPa 0,0 l/m 0 min 0 min 0,0 UV-I 0 W/m 12,9 km/h (3 Bft)
06.03.2013 00:34 7,0 C 5,1 C 71 % 1005,8 hPa 0,0 l/m 0 min 0 min 0,0 UV-I 0 W/m 12,9 km/h (3 Bft)
06.03.2013 00:36 7,1 C 5,1 C 71 % 1005,9 hPa 0,0 l/m 0 min 0 min 0,0 UV-I 0 W/m 7,7 km/h (2 Bft)
06.03.2013 00:38 7,0 C 5,1 C 71 % 1005,8 hPa 0,0 l/m 0 min 0 min 0,0 UV-I 0 W/m 15,4 km/h (3 Bft)
06.03.2013 00:40 7,0 C 5,1 C 71 % 1005,8 hPa 0,0 l/m 0 min 0 min 0,0 UV-I 0 W/m 12,9 km/h (3 Bft)
06.03.2013 00:42 7,1 C 5,1 C 71 % 1005,8 hPa 0,0 l/m 0 min 0 min 0,0 UV-I 0 W/m 15,4 km/h (3 Bft)
06.03.2013 00:44 7,1 C 5,1 C 71 % 1005,7 hPa 0,0 l/m 0 min 0 min 0,0 UV-I 0 W/m 12,9 km/h (3 Bft)
06.03.2013 00:46 7,0 C 5,1 C 71 % 1005,7 hPa 0,0 l/m 0 min 0 min 0,0 UV-I 0 W/m 15,4 km/h (3 Bft)
06.03.2013 00:48 7,1 C 5,1 C 71 % 1005,7 hPa 0,0 l/m 0 min 0 min 0,0 UV-I 0 W/m 15,4 km/h (3 Bft)
06.03.2013 00:50 7,1 C 5,1 C 71 % 1005,7 hPa 0,0 l/m 0 min 0 min 0,0 UV-I 0 W/m 20,6 km/h (4 Bft)
06.03.2013 00:52 7,1 C 5,1 C 71 % 1005,7 hPa 0,0 l/m 0 min 0 min 0,0 UV-I 0 W/m 20,6 km/h (4 Bft)
06.03.2013 00:54 7,1 C 5,1 C 71 % 1005,7 hPa 0,0 l/m 0 min 0 min 0,0 UV-I 0 W/m 12,9 km/h (3 Bft)
06.03.2013 00:56 7,1 C 5,1 C 71 % 1005,7 hPa 0,0 l/m 0 min 0 min 0,0 UV-I 0 W/m 23,2 km/h (4 Bft)
06.03.2013 00:58 7,1 C 5,1 C 71 % 1005,7 hPa 0,0 l/m 0 min 0 min 0,0 UV-I 0 W/m 15,4 km/h (3 Bft)
06.03.2013 01:00 7,1 C 5,1 C 71 % 1005,7 hPa 0,0 l/m 0 min 0 min 0,0 UV-I 0 W/m 10,3 km/h (2 Bft)
06.03.2013 01:02 7,1 C 5,1 C 70 % 1005,6 hPa 0,0 l/m 0 min 0 min 0,0 UV-I 0 W/m 12,9 km/h (3 Bft)
06.03.2013 01:04 7,1 C 5,1 C 70 % 1005,5 hPa 0,0 l/m 0 min 0 min 0,0 UV-I 0 W/m 15,4 km/h (3 Bft)
06.03.2013 01:06 7,1 C 5,1 C 70 % 1005,5 hPa 0,0 l/m 0 min 0 min 0,0 UV-I 0 W/m 12,9 km/h (3 Bft)
06.03.2013 01:08 7,1 C 5,1 C 70 % 1005,6 hPa 0,0 l/m 0 min 0 min 0,0 UV-I 0 W/m 15,4 km/h (3 Bft)
06.03.2013 01:10 7,1 C 5,1 C 70 % 1005,5 hPa 0,0 l/m 0 min 0 min 0,0 UV-I 0 W/m 15,4 km/h (3 Bft)
06.03.2013 01:12 7,0 C 5,1 C 70 % 1005,5 hPa 0,0 l/m 0 min 0 min 0,0 UV-I 0 W/m 12,9 km/h (3 Bft)
06.03.2013 01:14 7,0 C 5,1 C 70 % 1005,5 hPa 0,0 l/m 0 min 0 min 0,0 UV-I 0 W/m 12,9 km/h (3 Bft)
06.03.2013 01:16 7,0 C 5,1 C 70 % 1005,5 hPa 0,0 l/m 0 min 0 min 0,0 UV-I 0 W/m 12,9 km/h (3 Bft)
06.03.2013 01:18 7,0 C 5,1 C 70 % 1005,5 hPa 0,0 l/m 0 min 0 min 0,0 UV-I 0 W/m 10,3 km/h (2 Bft)
06.03.2013 01:20 7,0 C 5,1 C 70 % 1005,4 hPa 0,0 l/m 0 min 0 min 0,0 UV-I 0 W/m 10,3 km/h (2 Bft)
06.03.2013 01:22 7,0 C 5,1 C 70 % 1005,4 hPa 0,0 l/m 0 min 0 min 0,0 UV-I 0 W/m 15,4 km/h (3 Bft)
06.03.2013 01:24 6,9 C 5,1 C 70 % 1005,4 hPa 0,0 l/m 0 min 0 min 0,0 UV-I 0 W/m 12,9 km/h (3 Bft)
06.03.2013 01:26 6,9 C 5,1 C 70 % 1005,4 hPa 0,0 l/m 0 min 0 min 0,0 UV-I 0 W/m 15,4 km/h (3 Bft)
06.03.2013 01:28 6,9 C 5,1 C 70 % 1005,3 hPa 0,0 l/m 0 min 0 min 0,0 UV-I 0 W/m 7,7 km/h (2 Bft)
06.03.2013 01:30 6,9 C 5,1 C 70 % 1005,4 hPa 0,0 l/m 0 min 0 min 0,0 UV-I 0 W/m 7,7 km/h (2 Bft)
06.03.2013 01:32 6,9 C 5,1 C 70 % 1005,4 hPa 0,0 l/m 0 min 0 min 0,0 UV-I 0 W/m 12,9 km/h (3 Bft)
06.03.2013 01:34 6,9 C 5,1 C 70 % 1005,6 hPa 0,0 l/m 0 min 0 min 0,0 UV-I 0 W/m 10,3 km/h (2 Bft)
06.03.2013 01:36 6,9 C 5,1 C 70 % 1005,5 hPa 0,0 l/m 0 min 0 min 0,0 UV-I 0 W/m 10,3 km/h (2 Bft)
06.03.2013 01:38 6,9 C 5,1 C 70 % 1005,5 hPa 0,0 l/m 0 min 0 min 0,0 UV-I 0 W/m 12,9 km/h (3 Bft)
06.03.2013 01:40 6,9 C 5,1 C 70 % 1005,5 hPa 0,0 l/m 0 min 0 min 0,0 UV-I 0 W/m 18,0 km/h (3 Bft)
06.03.2013 01:42 6,9 C 5,1 C 71 % 1005,4 hPa 0,0 l/m 0 min 0 min 0,0 UV-I 0 W/m 7,7 km/h (2 Bft)
06.03.2013 01:44 6,9 C 5,1 C 71 % 1005,4 hPa 0,0 l/m 0 min 0 min 0,0 UV-I 0 W/m 12,9 km/h (3 Bft)
06.03.2013 01:46 6,9 C 5,1 C 71 % 1005,4 hPa 0,0 l/m 0 min 0 min 0,0 UV-I 0 W/m 12,9 km/h (3 Bft)
06.03.2013 01:48 6,9 C 5,1 C 71 % 1005,4 hPa 0,0 l/m 0 min 0 min 0,0 UV-I 0 W/m 12,9 km/h (3 Bft)
06.03.2013 01:50 6,9 C 5,1 C 71 % 1005,4 hPa 0,0 l/m 0 min 0 min 0,0 UV-I 0 W/m 12,9 km/h (3 Bft)
06.03.2013 01:52 6,9 C 5,1 C 71 % 1005,5 hPa 0,0 l/m 0 min 0 min 0,0 UV-I 0 W/m 10,3 km/h (2 Bft)
06.03.2013 01:54 6,8 C 5,1 C 71 % 1005,4 hPa 0,0 l/m 0 min 0 min 0,0 UV-I 0 W/m 10,3 km/h (2 Bft)
06.03.2013 01:56 6,8 C 5,1 C 71 % 1005,4 hPa 0,0 l/m 0 min 0 min 0,0 UV-I 0 W/m 12,9 km/h (3 Bft)
06.03.2013 01:58 6,8 C 5,1 C 71 % 1005,4 hPa 0,0 l/m 0 min 0 min 0,0 UV-I 0 W/m 10,3 km/h (2 Bft)
06.03.2013 02:00 6,8 C 5,1 C 71 % 1005,3 hPa 0,0 l/m 0 min 0 min 0,0 UV-I 0 W/m 5,1 km/h (1 Bft)
06.03.2013 02:02 6,8 C 5,1 C 71 % 1005,3 hPa 0,0 l/m 0 min 0 min 0,0 UV-I 0 W/m 12,9 km/h (3 Bft)
06.03.2013 02:04 6,8 C 5,1 C 71 % 1005,3 hPa 0,0 l/m 0 min 0 min 0,0 UV-I 0 W/m 7,7 km/h (2 Bft)
06.03.2013 02:06 6,7 C 5,1 C 71 % 1005,2 hPa 0,0 l/m 0 min 0 min 0,0 UV-I 0 W/m 12,9 km/h (3 Bft)
06.03.2013 02:08 6,7 C 5,1 C 71 % 1005,2 hPa 0,0 l/m 0 min 0 min 0,0 UV-I 0 W/m 12,9 km/h (3 Bft)
06.03.2013 02:10 6,7 C 5,1 C 71 % 1005,2 hPa 0,0 l/m 0 min 0 min 0,0 UV-I 0 W/m 12,9 km/h (3 Bft)
06.03.2013 02:12 6,7 C 5,1 C 71 % 1005,2 hPa 0,0 l/m 0 min 0 min 0,0 UV-I 0 W/m 10,3 km/h (2 Bft)
06.03.2013 02:14 6,7 C 5,1 C 71 % 1005,2 hPa 0,0 l/m 0 min 0 min 0,0 UV-I 0 W/m 0,0 km/h (0 Bft)
06.03.2013 02:16 6,7 C 5,1 C 71 % 1005,2 hPa 0,0 l/m 0 min 0 min 0,0 UV-I 0 W/m 7,7 km/h (2 Bft)
06.03.2013 02:18 6,7 C 5,1 C 71 % 1005,3 hPa 0,0 l/m 0 min 0 min 0,0 UV-I 0 W/m 2,6 km/h (1 Bft)
06.03.2013 02:20 6,7 C 5,1 C 71 % 1005,2 hPa 0,0 l/m 0 min 0 min 0,0 UV-I 0 W/m 10,3 km/h (2 Bft)
06.03.2013 02:22 6,7 C 5,1 C 71 % 1005,2 hPa 0,0 l/m 0 min 0 min 0,0 UV-I 0 W/m 7,7 km/h (2 Bft)
06.03.2013 02:24 6,7 C 5,1 C 71 % 1005,2 hPa 0,0 l/m 0 min 0 min 0,0 UV-I 0 W/m 7,7 km/h (2 Bft)
06.03.2013 02:26 6,7 C 5,1 C 71 % 1005,1 hPa 0,0 l/m 0 min 0 min 0,0 UV-I 0 W/m 15,4 km/h (3 Bft)
06.03.2013 02:28 6,7 C 5,1 C 71 % 1005,1 hPa 0,0 l/m 0 min 0 min 0,0 UV-I 0 W/m 12,9 km/h (3 Bft)
06.03.2013 02:30 6,7 C 5,1 C 71 % 1005,1 hPa 0,0 l/m 0 min 0 min 0,0 UV-I 0 W/m 10,3 km/h (2 Bft)
06.03.2013 02:32 6,7 C 5,1 C 71 % 1005,1 hPa 0,0 l/m 0 min 0 min 0,0 UV-I 0 W/m 15,4 km/h (3 Bft)
06.03.2013 02:34 6,7 C 5,1 C 71 % 1005,1 hPa 0,0 l/m 0 min 0 min 0,0 UV-I 0 W/m 12,9 km/h (3 Bft)
06.03.2013 02:36 6,7 C 5,1 C 71 % 1005,1 hPa 0,0 l/m 0 min 0 min 0,0 UV-I 0 W/m 15,4 km/h (3 Bft)
06.03.2013 02:38 6,7 C 5,1 C 71 % 1005,1 hPa 0,0 l/m 0 min 0 min 0,0 UV-I 0 W/m 15,4 km/h (3 Bft)
06.03.2013 02:40 6,6 C 5,1 C 71 % 1005,1 hPa 0,0 l/m 0 min 0 min 0,0 UV-I 0 W/m 18,0 km/h (3 Bft)
06.03.2013 02:42 6,6 C 5,1 C 71 % 1005,0 hPa 0,0 l/m 0 min 0 min 0,0 UV-I 0 W/m 12,9 km/h (3 Bft)
06.03.2013 02:44 6,6 C 5,1 C 71 % 1005,0 hPa 0,0 l/m 0 min 0 min 0,0 UV-I 0 W/m 10,3 km/h (2 Bft)
06.03.2013 02:46 6,6 C 4,6 C 71 % 1005,1 hPa 0,0 l/m 0 min 0 min 0,0 UV-I 0 W/m 7,7 km/h (2 Bft)
06.03.2013 02:48 6,6 C 4,6 C 71 % 1005,1 hPa 0,0 l/m 0 min 0 min 0,0 UV-I 0 W/m 10,3 km/h (2 Bft)
06.03.2013 02:50 6,6 C 4,6 C 71 % 1005,0 hPa 0,0 l/m 0 min 0 min 0,0 UV-I 0 W/m 7,7 km/h (2 Bft)
06.03.2013 02:52 6,6 C 4,6 C 71 % 1005,0 hPa 0,0 l/m 0 min 0 min 0,0 UV-I 0 W/m 12,9 km/h (3 Bft)
06.03.2013 02:54 6,6 C 4,6 C 71 % 1005,1 hPa 0,0 l/m 0 min 0 min 0,0 UV-I 0 W/m 15,4 km/h (3 Bft)
06.03.2013 02:56 6,6 C 4,6 C 71 % 1005,0 hPa 0,0 l/m 0 min 0 min 0,0 UV-I 0 W/m 12,9 km/h (3 Bft)
06.03.2013 02:58 6,5 C 4,0 C 71 % 1005,0 hPa 0,0 l/m 0 min 0 min 0,0 UV-I 0 W/m 7,7 km/h (2 Bft)
06.03.2013 03:00 6,5 C 4,0 C 71 % 1005,0 hPa 0,0 l/m 0 min 0 min 0,0 UV-I 0 W/m 5,1 km/h (1 Bft)
06.03.2013 03:02 6,4 C 4,0 C 71 % 1005,0 hPa 0,0 l/m 0 min 0 min 0,0 UV-I 0 W/m 7,7 km/h (2 Bft)
06.03.2013 03:06 6,4 C 4,0 C 71 % 1005,0 hPa 0,0 l/m 0 min 0 min 0,0 UV-I 0 W/m 12,9 km/h (3 Bft)
06.03.2013 03:08 6,4 C 4,0 C 71 % 1004,9 hPa 0,0 l/m 0 min 0 min 0,0 UV-I 0 W/m 7,7 km/h (2 Bft)
06.03.2013 03:10 6,3 C 4,0 C 71 % 1004,9 hPa 0,0 l/m 0 min 0 min 0,0 UV-I 0 W/m 12,9 km/h (3 Bft)
06.03.2013 03:12 6,3 C 4,0 C 71 % 1004,8 hPa 0,0 l/m 0 min 0 min 0,0 UV-I 0 W/m 7,7 km/h (2 Bft)
06.03.2013 03:14 6,3 C 4,0 C 72 % 1004,9 hPa 0,0 l/m 0 min 0 min 0,0 UV-I 0 W/m 5,1 km/h (1 Bft)
06.03.2013 03:16 6,2 C 3,4 C 72 % 1004,9 hPa 0,0 l/m 0 min 0 min 0,0 UV-I 0 W/m 12,9 km/h (3 Bft)
06.03.2013 03:18 6,2 C 4,0 C 72 % 1004,8 hPa 0,0 l/m 0 min 0 min 0,0 UV-I 0 W/m 12,9 km/h (3 Bft)
06.03.2013 03:20 6,2 C 4,0 C 72 % 1004,8 hPa 0,0 l/m 0 min 0 min 0,0 UV-I 0 W/m 7,7 km/h (2 Bft)
06.03.2013 03:22 6,1 C 4,0 C 72 % 1004,8 hPa 0,0 l/m 0 min 0 min 0,0 UV-I 0 W/m 10,3 km/h (2 Bft)
06.03.2013 03:24 6,1 C 4,0 C 72 % 1004,7 hPa 0,0 l/m 0 min 0 min 0,0 UV-I 0 W/m 7,7 km/h (2 Bft)
06.03.2013 03:26 6,1 C 4,0 C 72 % 1004,6 hPa 0,0 l/m 0 min 0 min 0,0 UV-I 0 W/m 7,7 km/h (2 Bft)
06.03.2013 03:28 6,0 C 3,4 C 72 % 1004,6 hPa 0,0 l/m 0 min 0 min 0,0 UV-I 0 W/m 7,7 km/h (2 Bft)
06.03.2013 03:30 5,9 C 3,4 C 73 % 1004,6 hPa 0,0 l/m 0 min 0 min 0,0 UV-I 0 W/m 7,7 km/h (2 Bft)
06.03.2013 03:32 5,9 C 3,4 C 73 % 1004,6 hPa 0,0 l/m 0 min 0 min 0,0 UV-I 0 W/m 10,3 km/h (2 Bft)
06.03.2013 03:34 5,9 C 3,4 C 73 % 1004,6 hPa 0,0 l/m 0 min 0 min 0,0 UV-I 0 W/m 12,9 km/h (3 Bft)
06.03.2013 03:36 5,9 C 3,4 C 73 % 1004,6 hPa 0,0 l/m 0 min 0 min 0,0 UV-I 0 W/m 18,0 km/h (3 Bft)
06.03.2013 03:38 5,8 C 3,4 C 73 % 1004,6 hPa 0,0 l/m 0 min 0 min 0,0 UV-I 0 W/m 10,3 km/h (2 Bft)
06.03.2013 03:40 5,8 C 3,4 C 73 % 1004,6 hPa 0,0 l/m 0 min 0 min 0,0 UV-I 0 W/m 10,3 km/h (2 Bft)
06.03.2013 03:42 5,8 C 3,4 C 73 % 1004,6 hPa 0,0 l/m 0 min 0 min 0,0 UV-I 0 W/m 12,9 km/h (3 Bft)
06.03.2013 03:44 5,7 C 3,4 C 73 % 1004,6 hPa 0,0 l/m 0 min 0 min 0,0 UV-I 0 W/m 5,1 km/h (1 Bft)
06.03.2013 03:46 5,7 C 3,4 C 74 % 1004,5 hPa 0,0 l/m 0 min 0 min 0,0 UV-I 0 W/m 7,7 km/h (2 Bft)
06.03.2013 03:48 5,7 C 3,4 C 74 % 1004,6 hPa 0,0 l/m 0 min 0 min 0,0 UV-I 0 W/m 7,7 km/h (2 Bft)
06.03.2013 03:50 5,7 C 3,4 C 74 % 1004,5 hPa 0,0 l/m 0 min 0 min 0,0 UV-I 0 W/m 10,3 km/h (2 Bft)
06.03.2013 03:52 5,6 C 3,4 C 74 % 1004,5 hPa 0,0 l/m 0 min 0 min 0,0 UV-I 0 W/m 7,7 km/h (2 Bft)
06.03.2013 03:54 5,6 C 3,4 C 74 % 1004,5 hPa 0,0 l/m 0 min 0 min 0,0 UV-I 0 W/m 7,7 km/h (2 Bft)
06.03.2013 03:56 5,6 C 3,4 C 74 % 1004,5 hPa 0,0 l/m 0 min 0 min 0,0 UV-I 0 W/m 10,3 km/h (2 Bft)
06.03.2013 03:58 5,5 C 3,4 C 74 % 1004,5 hPa 0,0 l/m 0 min 0 min 0,0 UV-I 0 W/m 12,9 km/h (3 Bft)
06.03.2013 04:00 5,5 C 3,4 C 74 % 1004,5 hPa 0,0 l/m 0 min 0 min 0,0 UV-I 0 W/m 7,7 km/h (2 Bft)
06.03.2013 04:02 5,4 C 3,4 C 74 % 1004,5 hPa 0,0 l/m 0 min 0 min 0,0 UV-I 0 W/m 7,7 km/h (2 Bft)
06.03.2013 04:04 5,4 C 3,4 C 75 % 1004,5 hPa 0,0 l/m 0 min 0 min 0,0 UV-I 0 W/m 7,7 km/h (2 Bft)
06.03.2013 04:06 5,4 C 3,4 C 75 % 1004,4 hPa 0,0 l/m 0 min 0 min 0,0 UV-I 0 W/m 10,3 km/h (2 Bft)
06.03.2013 04:08 5,4 C 3,4 C 75 % 1004,4 hPa 0,0 l/m 0 min 0 min 0,0 UV-I 0 W/m 10,3 km/h (2 Bft)
06.03.2013 04:10 5,4 C 3,4 C 75 % 1004,5 hPa 0,0 l/m 0 min 0 min 0,0 UV-I 0 W/m 5,1 km/h (1 Bft)
06.03.2013 04:12 5,4 C 3,4 C 75 % 1004,4 hPa 0,0 l/m 0 min 0 min 0,0 UV-I 0 W/m 2,6 km/h (1 Bft)
06.03.2013 04:14 5,4 C 3,4 C 75 % 1004,4 hPa 0,0 l/m 0 min 0 min 0,0 UV-I 0 W/m 7,7 km/h (2 Bft)
06.03.2013 04:16 5,3 C 3,4 C 75 % 1004,4 hPa 0,0 l/m 0 min 0 min 0,0 UV-I 0 W/m 7,7 km/h (2 Bft)
06.03.2013 04:18 5,3 C 3,4 C 75 % 1004,4 hPa 0,0 l/m 0 min 0 min 0,0 UV-I 0 W/m 10,3 km/h (2 Bft)
06.03.2013 04:20 5,3 C 3,4 C 75 % 1004,4 hPa 0,0 l/m 0 min 0 min 0,0 UV-I 0 W/m 10,3 km/h (2 Bft)
06.03.2013 04:22 5,3 C 4,0 C 75 % 1004,4 hPa 0,0 l/m 0 min 0 min 0,0 UV-I 0 W/m 7,7 km/h (2 Bft)
06.03.2013 04:24 5,3 C 4,0 C 75 % 1004,3 hPa 0,0 l/m 0 min 0 min 0,0 UV-I 0 W/m 7,7 km/h (2 Bft)
06.03.2013 04:26 5,3 C 4,0 C 75 % 1004,3 hPa 0,0 l/m 0 min 0 min 0,0 UV-I 0 W/m 10,3 km/h (2 Bft)
06.03.2013 04:28 5,4 C 4,0 C 75 % 1004,3 hPa 0,0 l/m 0 min 0 min 0,0 UV-I 0 W/m 5,1 km/h (1 Bft)
06.03.2013 04:30 5,4 C 4,0 C 75 % 1004,3 hPa 0,0 l/m 0 min 0 min 0,0 UV-I 0 W/m 7,7 km/h (2 Bft)
06.03.2013 04:32 5,4 C 4,0 C 75 % 1004,3 hPa 0,0 l/m 0 min 0 min 0,0 UV-I 0 W/m 7,7 km/h (2 Bft)
06.03.2013 04:34 5,4 C 4,0 C 75 % 1004,3 hPa 0,0 l/m 0 min 0 min 0,0 UV-I 0 W/m 10,3 km/h (2 Bft)
06.03.2013 04:36 5,4 C 4,0 C 75 % 1004,2 hPa 0,0 l/m 0 min 0 min 0,0 UV-I 0 W/m 10,3 km/h (2 Bft)
06.03.2013 04:38 5,4 C 4,0 C 75 % 1004,2 hPa 0,0 l/m 0 min 0 min 0,0 UV-I 0 W/m 7,7 km/h (2 Bft)
06.03.2013 04:40 5,4 C 4,0 C 75 % 1004,2 hPa 0,0 l/m 0 min 0 min 0,0 UV-I 0 W/m 10,3 km/h (2 Bft)
06.03.2013 04:42 5,5 C 4,0 C 75 % 1004,2 hPa 0,0 l/m 0 min 0 min 0,0 UV-I 0 W/m 12,9 km/h (3 Bft)
06.03.2013 04:44 5,5 C 4,0 C 75 % 1004,2 hPa 0,0 l/m 0 min 0 min 0,0 UV-I 0 W/m 10,3 km/h (2 Bft)
06.03.2013 04:46 5,5 C 4,0 C 75 % 1004,2 hPa 0,0 l/m 0 min 0 min 0,0 UV-I 0 W/m 12,9 km/h (3 Bft)
06.03.2013 04:48 5,6 C 4,0 C 75 % 1004,2 hPa 0,0 l/m 0 min 0 min 0,0 UV-I 0 W/m 10,3 km/h (2 Bft)
06.03.2013 04:50 5,6 C 4,0 C 75 % 1004,2 hPa 0,0 l/m 0 min 0 min 0,0 UV-I 0 W/m 7,7 km/h (2 Bft)
06.03.2013 04:52 5,6 C 4,0 C 75 % 1004,2 hPa 0,0 l/m 0 min 0 min 0,0 UV-I 0 W/m 12,9 km/h (3 Bft)
06.03.2013 04:54 5,6 C 4,0 C 75 % 1004,2 hPa 0,0 l/m 0 min 0 min 0,0 UV-I 0 W/m 10,3 km/h (2 Bft)
06.03.2013 04:56 5,6 C 4,0 C 75 % 1004,1 hPa 0,0 l/m 0 min 0 min 0,0 UV-I 0 W/m 10,3 km/h (2 Bft)
06.03.2013 04:58 5,6 C 4,0 C 75 % 1004,1 hPa 0,0 l/m 0 min 0 min 0,0 UV-I 0 W/m 5,1 km/h (1 Bft)
06.03.2013 05:00 5,7 C 4,0 C 75 % 1004,1 hPa 0,0 l/m 0 min 0 min 0,0 UV-I 0 W/m 7,7 km/h (2 Bft)
06.03.2013 05:02 5,7 C 4,6 C 75 % 1004,1 hPa 0,0 l/m 0 min 0 min 0,0 UV-I 0 W/m 12,9 km/h (3 Bft)
06.03.2013 05:04 5,7 C 4,6 C 75 % 1004,1 hPa 0,0 l/m 0 min 0 min 0,0 UV-I 0 W/m 2,6 km/h (1 Bft)
06.03.2013 05:06 5,7 C 4,6 C 75 % 1004,1 hPa 0,0 l/m 0 min 0 min 0,0 UV-I 0 W/m 7,7 km/h (2 Bft)
06.03.2013 05:08 5,7 C 4,6 C 75 % 1004,0 hPa 0,0 l/m 0 min 0 min 0,0 UV-I 0 W/m 7,7 km/h (2 Bft)
06.03.2013 05:10 5,7 C 4,6 C 75 % 1004,1 hPa 0,0 l/m 0 min 0 min 0,0 UV-I 0 W/m 7,7 km/h (2 Bft)
06.03.2013 05:12 5,7 C 4,6 C 75 % 1004,0 hPa 0,0 l/m 0 min 0 min 0,0 UV-I 0 W/m 7,7 km/h (2 Bft)
06.03.2013 05:14 5,7 C 4,6 C 75 % 1004,1 hPa 0,0 l/m 0 min 0 min 0,0 UV-I 0 W/m 10,3 km/h (2 Bft)
06.03.2013 05:16 5,7 C 4,6 C 75 % 1004,0 hPa 0,0 l/m 0 min 0 min 0,0 UV-I 0 W/m 12,9 km/h (3 Bft)
06.03.2013 05:18 5,7 C 4,6 C 75 % 1004,0 hPa 0,0 l/m 0 min 0 min 0,0 UV-I 0 W/m 7,7 km/h (2 Bft)
06.03.2013 05:20 5,7 C 4,6 C 75 % 1004,1 hPa 0,0 l/m 0 min 0 min 0,0 UV-I 0 W/m 5,1 km/h (1 Bft)
06.03.2013 05:22 5,8 C 4,6 C 75 % 1004,0 hPa 0,0 l/m 0 min 0 min 0,0 UV-I 0 W/m 5,1 km/h (1 Bft)
06.03.2013 05:24 5,8 C 4,6 C 75 % 1004,0 hPa 0,0 l/m 0 min 0 min 0,0 UV-I 0 W/m 7,7 km/h (2 Bft)
06.03.2013 05:26 5,8 C 4,0 C 74 % 1004,0 hPa 0,0 l/m 0 min 0 min 0,0 UV-I 0 W/m 5,1 km/h (1 Bft)
06.03.2013 05:28 5,8 C 4,6 C 75 % 1004,0 hPa 0,0 l/m 0 min 0 min 0,0 UV-I 0 W/m 12,9 km/h (3 Bft)
06.03.2013 05:30 5,8 C 4,6 C 75 % 1004,0 hPa 0,0 l/m 0 min 0 min 0,0 UV-I 0 W/m 10,3 km/h (2 Bft)
06.03.2013 05:32 5,8 C 4,0 C 75 % 1004,0 hPa 0,0 l/m 0 min 0 min 0,0 UV-I 0 W/m 2,6 km/h (1 Bft)
06.03.2013 05:34 5,8 C 4,0 C 75 % 1004,0 hPa 0,0 l/m 0 min 0 min 0,0 UV-I 0 W/m 7,7 km/h (2 Bft)
06.03.2013 05:36 5,8 C 4,0 C 75 % 1004,0 hPa 0,0 l/m 0 min 0 min 0,0 UV-I 0 W/m 10,3 km/h (2 Bft)
06.03.2013 05:38 5,8 C 4,0 C 75 % 1004,0 hPa 0,0 l/m 0 min 0 min 0,0 UV-I 0 W/m 7,7 km/h (2 Bft)
06.03.2013 05:40 5,8 C 4,0 C 75 % 1004,0 hPa 0,0 l/m 0 min 0 min 0,0 UV-I 0 W/m 12,9 km/h (3 Bft)
06.03.2013 05:42 5,8 C 4,0 C 75 % 1004,0 hPa 0,0 l/m 0 min 0 min 0,0 UV-I 0 W/m 10,3 km/h (2 Bft)
06.03.2013 05:44 5,8 C 4,0 C 74 % 1004,0 hPa 0,0 l/m 0 min 0 min 0,0 UV-I 0 W/m 12,9 km/h (3 Bft)
06.03.2013 05:46 5,8 C 4,6 C 74 % 1003,9 hPa 0,0 l/m 0 min 0 min 0,0 UV-I 0 W/m 15,4 km/h (3 Bft)
06.03.2013 05:48 5,8 C 4,6 C 74 % 1003,9 hPa 0,0 l/m 0 min 0 min 0,0 UV-I 0 W/m 15,4 km/h (3 Bft)
06.03.2013 05:50 5,8 C 4,6 C 74 % 1003,9 hPa 0,0 l/m 0 min 0 min 0,0 UV-I 0 W/m 7,7 km/h (2 Bft)
06.03.2013 05:52 5,8 C 4,6 C 74 % 1003,9 hPa 0,0 l/m 0 min 0 min 0,0 UV-I 0 W/m 12,9 km/h (3 Bft)
06.03.2013 05:54 5,8 C 4,6 C 74 % 1003,8 hPa 0,0 l/m 0 min 0 min 0,0 UV-I 0 W/m 15,4 km/h (3 Bft)
06.03.2013 05:56 5,8 C 4,0 C 74 % 1003,9 hPa 0,0 l/m 0 min 0 min 0,0 UV-I 0 W/m 15,4 km/h (3 Bft)
06.03.2013 05:58 5,8 C 4,0 C 74 % 1003,8 hPa 0,0 l/m 0 min 0 min 0,0 UV-I 0 W/m 12,9 km/h (3 Bft)
06.03.2013 06:00 5,8 C 4,0 C 74 % 1003,8 hPa 0,0 l/m 0 min 0 min 0,0 UV-I 0 W/m 12,9 km/h (3 Bft)
06.03.2013 06:02 5,8 C 4,0 C 74 % 1003,8 hPa 0,0 l/m 0 min 0 min 0,0 UV-I 0 W/m 12,9 km/h (3 Bft)
06.03.2013 06:06 5,8 C 4,0 C 74 % 1003,7 hPa 0,0 l/m 0 min 0 min 0,0 UV-I 0 W/m 7,7 km/h (2 Bft)
06.03.2013 06:08 5,8 C 4,0 C 74 % 1003,7 hPa 0,0 l/m 0 min 0 min 0,0 UV-I 0 W/m 10,3 km/h (2 Bft)
06.03.2013 06:10 5,8 C 4,0 C 74 % 1003,7 hPa 0,0 l/m 0 min 0 min 0,0 UV-I 0 W/m 7,7 km/h (2 Bft)
06.03.2013 06:12 5,8 C 4,0 C 74 % 1003,7 hPa 0,0 l/m 0 min 0 min 0,0 UV-I 0 W/m 12,9 km/h (3 Bft)
06.03.2013 06:14 5,8 C 4,0 C 74 % 1003,7 hPa 0,0 l/m 0 min 0 min 0,0 UV-I 0 W/m 12,9 km/h (3 Bft)
06.03.2013 06:16 5,8 C 4,0 C 74 % 1003,7 hPa 0,0 l/m 0 min 0 min 0,0 UV-I 0 W/m 12,9 km/h (3 Bft)
06.03.2013 06:18 5,8 C 4,0 C 74 % 1003,7 hPa 0,0 l/m 0 min 0 min 0,0 UV-I 0 W/m 15,4 km/h (3 Bft)
06.03.2013 06:20 5,8 C 4,6 C 74 % 1003,7 hPa 0,0 l/m 0 min 0 min 0,0 UV-I 0 W/m 10,3 km/h (2 Bft)
06.03.2013 06:22 5,8 C 4,6 C 74 % 1003,8 hPa 0,0 l/m 0 min 0 min 0,0 UV-I 0 W/m 12,9 km/h (3 Bft)
06.03.2013 06:24 5,8 C 4,6 C 74 % 1003,7 hPa 0,0 l/m 0 min 0 min 0,0 UV-I 0 W/m 7,7 km/h (2 Bft)
06.03.2013 06:26 5,8 C 4,6 C 74 % 1003,7 hPa 0,0 l/m 0 min 0 min 0,0 UV-I 0 W/m 7,7 km/h (2 Bft)
06.03.2013 06:28 5,8 C 4,6 C 74 % 1003,7 hPa 0,0 l/m 0 min 0 min 0,0 UV-I 0 W/m 12,9 km/h (3 Bft)
06.03.2013 06:30 5,8 C 4,6 C 74 % 1003,8 hPa 0,0 l/m 0 min 0 min 0,0 UV-I 0 W/m 18,0 km/h (3 Bft)
06.03.2013 06:32 5,8 C 4,6 C 74 % 1003,7 hPa 0,0 l/m 0 min 0 min 0,0 UV-I 0 W/m 18,0 km/h (3 Bft)
06.03.2013 06:34 5,8 C 4,6 C 75 % 1003,7 hPa 0,0 l/m 0 min 0 min 0,0 UV-I 0 W/m 10,3 km/h (2 Bft)
06.03.2013 06:36 5,8 C 4,6 C 75 % 1003,8 hPa 0,0 l/m 0 min 0 min 0,0 UV-I 0 W/m 15,4 km/h (3 Bft)
06.03.2013 06:38 5,8 C 4,0 C 75 % 1003,7 hPa 0,0 l/m 0 min 0 min 0,0 UV-I 0 W/m 15,4 km/h (3 Bft)
06.03.2013 06:40 5,8 C 4,0 C 75 % 1003,8 hPa 0,0 l/m 0 min 0 min 0,0 UV-I 0 W/m 12,9 km/h (3 Bft)
06.03.2013 06:42 5,8 C 4,0 C 75 % 1003,7 hPa 0,0 l/m 0 min 0 min 0,0 UV-I 0 W/m 15,4 km/h (3 Bft)
06.03.2013 06:44 5,8 C 4,0 C 75 % 1003,7 hPa 0,0 l/m 0 min 0 min 0,0 UV-I 0 W/m 12,9 km/h (3 Bft)
06.03.2013 06:46 5,8 C 4,0 C 75 % 1003,8 hPa 0,0 l/m 0 min 0 min 0,0 UV-I 0 W/m 18,0 km/h (3 Bft)
06.03.2013 06:48 5,8 C 4,0 C 75 % 1003,7 hPa 0,0 l/m 0 min 0 min 0,0 UV-I 0 W/m 15,4 km/h (3 Bft)
06.03.2013 06:50 5,8 C 4,0 C 75 % 1003,7 hPa 0,0 l/m 0 min 0 min 0,0 UV-I 0 W/m 10,3 km/h (2 Bft)
06.03.2013 06:52 5,8 C 4,0 C 75 % 1003,8 hPa 0,0 l/m 0 min 0 min 0,0 UV-I 0 W/m 12,9 km/h (3 Bft)
06.03.2013 06:54 5,8 C 4,0 C 74 % 1003,7 hPa 0,0 l/m 0 min 0 min 0,0 UV-I 0 W/m 10,3 km/h (2 Bft)
06.03.2013 06:56 5,7 C 4,0 C 75 % 1003,7 hPa 0,0 l/m 0 min 0 min 0,0 UV-I 0 W/m 12,9 km/h (3 Bft)
06.03.2013 06:58 5,7 C 4,0 C 74 % 1003,8 hPa 0,0 l/m 0 min 0 min 0,0 UV-I 0 W/m 12,9 km/h (3 Bft)
06.03.2013 07:00 5,7 C 4,0 C 74 % 1003,8 hPa 0,0 l/m 0 min 0 min 0,0 UV-I 0 W/m 18,0 km/h (3 Bft)
06.03.2013 07:02 5,7 C 4,0 C 74 % 1003,8 hPa 0,0 l/m 0 min 0 min 0,0 UV-I 0 W/m 20,6 km/h (4 Bft)
06.03.2013 07:04 5,7 C 4,0 C 74 % 1003,8 hPa 0,0 l/m 0 min 0 min 0,0 UV-I 0 W/m 12,9 km/h (3 Bft)
06.03.2013 07:06 5,7 C 4,0 C 75 % 1003,8 hPa 0,0 l/m 0 min 0 min 0,0 UV-I 0 W/m 18,0 km/h (3 Bft)
06.03.2013 07:08 5,6 C 3,4 C 75 % 1003,8 hPa 0,0 l/m 0 min 0 min 0,0 UV-I 0 W/m 12,9 km/h (3 Bft)
06.03.2013 07:10 5,6 C 3,4 C 75 % 1003,8 hPa 0,0 l/m 0 min 0 min 0,0 UV-I 0 W/m 12,9 km/h (3 Bft)
06.03.2013 07:12 5,6 C 3,4 C 75 % 1003,7 hPa 0,0 l/m 0 min 0 min 0,0 UV-I 0 W/m 10,3 km/h (2 Bft)
06.03.2013 07:14 5,6 C 3,4 C 75 % 1003,7 hPa 0,0 l/m 0 min 0 min 0,0 UV-I 5 W/m 15,4 km/h (3 Bft)
06.03.2013 07:16 5,6 C 3,4 C 75 % 1003,7 hPa 0,0 l/m 0 min 0 min 0,0 UV-I 5 W/m 12,9 km/h (3 Bft)
06.03.2013 07:18 5,5 C 3,4 C 75 % 1003,8 hPa 0,0 l/m 0 min 0 min 0,0 UV-I 7 W/m 12,9 km/h (3 Bft)
06.03.2013 07:20 5,5 C 3,4 C 75 % 1003,7 hPa 0,0 l/m 0 min 0 min 0,0 UV-I 7 W/m 18,0 km/h (3 Bft)
06.03.2013 07:22 5,4 C 3,4 C 75 % 1003,7 hPa 0,0 l/m 0 min 0 min 0,0 UV-I 9 W/m 10,3 km/h (2 Bft)
06.03.2013 07:24 5,4 C 3,4 C 75 % 1003,7 hPa 0,0 l/m 0 min 0 min 0,0 UV-I 11 W/m 12,9 km/h (3 Bft)
06.03.2013 07:26 5,4 C 3,4 C 75 % 1003,7 hPa 0,0 l/m 0 min 0 min 0,0 UV-I 11 W/m 7,7 km/h (2 Bft)
06.03.2013 07:28 5,4 C 3,4 C 75 % 1003,7 hPa 0,0 l/m 0 min 0 min 0,0 UV-I 11 W/m 7,7 km/h (2 Bft)
06.03.2013 07:30 5,3 C 3,4 C 76 % 1003,7 hPa 0,0 l/m 0 min 0 min 0,0 UV-I 12 W/m 10,3 km/h (2 Bft)
06.03.2013 07:32 5,3 C 3,4 C 76 % 1003,7 hPa 0,0 l/m 0 min 0 min 0,0 UV-I 14 W/m 10,3 km/h (2 Bft)
06.03.2013 07:34 5,3 C 3,4 C 76 % 1003,8 hPa 0,0 l/m 0 min 0 min 0,0 UV-I 14 W/m 7,7 km/h (2 Bft)
06.03.2013 07:36 5,3 C 3,4 C 76 % 1003,8 hPa 0,0 l/m 0 min 0 min 0,0 UV-I 18 W/m 2,6 km/h (1 Bft)
06.03.2013 07:38 5,3 C 3,4 C 76 % 1003,7 hPa 0,0 l/m 0 min 0 min 0,0 UV-I 19 W/m 7,7 km/h (2 Bft)
06.03.2013 07:40 5,2 C 3,4 C 76 % 1003,8 hPa 0,0 l/m 0 min 0 min 0,0 UV-I 21 W/m 10,3 km/h (2 Bft)
06.03.2013 07:42 5,2 C 3,4 C 76 % 1003,7 hPa 0,0 l/m 0 min 0 min 0,0 UV-I 25 W/m 0,0 km/h (0 Bft)
06.03.2013 07:44 5,2 C 3,4 C 76 % 1003,7 hPa 0,0 l/m 0 min 0 min 0,0 UV-I 26 W/m 7,7 km/h (2 Bft)
06.03.2013 07:46 5,2 C 3,4 C 76 % 1003,8 hPa 0,0 l/m 0 min 0 min 0,0 UV-I 28 W/m 10,3 km/h (2 Bft)
06.03.2013 07:48 5,2 C 3,4 C 76 % 1003,8 hPa 0,0 l/m 0 min 0 min 0,0 UV-I 30 W/m 7,7 km/h (2 Bft)
06.03.2013 07:50 5,2 C 3,4 C 77 % 1003,8 hPa 0,0 l/m 0 min 0 min 0,0 UV-I 33 W/m 7,7 km/h (2 Bft)
06.03.2013 07:52 5,2 C 4,0 C 77 % 1003,8 hPa 0,0 l/m 0 min 0 min 0,0 UV-I 35 W/m 10,3 km/h (2 Bft)
06.03.2013 07:54 5,2 C 4,0 C 77 % 1003,8 hPa 0,0 l/m 0 min 0 min 0,0 UV-I 35 W/m 5,1 km/h (1 Bft)
06.03.2013 07:56 5,2 C 4,0 C 77 % 1003,8 hPa 0,0 l/m 0 min 0 min 0,0 UV-I 35 W/m 7,7 km/h (2 Bft)
06.03.2013 07:58 5,2 C 4,0 C 77 % 1003,8 hPa 0,0 l/m 0 min 0 min 0,0 UV-I 35 W/m 7,7 km/h (2 Bft)
06.03.2013 08:00 5,2 C 4,0 C 77 % 1003,8 hPa 0,0 l/m 0 min 0 min 0,0 UV-I 33 W/m 5,1 km/h (1 Bft)
06.03.2013 08:02 5,2 C 4,0 C 77 % 1003,8 hPa 0,0 l/m 0 min 0 min 0,0 UV-I 33 W/m 10,3 km/h (2 Bft)
06.03.2013 08:04 5,2 C 4,0 C 77 % 1003,8 hPa 0,0 l/m 0 min 0 min 0,0 UV-I 33 W/m 7,7 km/h (2 Bft)
06.03.2013 08:06 5,2 C 4,6 C 77 % 1003,7 hPa 0,0 l/m 0 min 0 min 0,0 UV-I 33 W/m 18,0 km/h (3 Bft)
06.03.2013 08:08 5,2 C 4,6 C 77 % 1003,8 hPa 0,0 l/m 0 min 0 min 0,0 UV-I 33 W/m 10,3 km/h (2 Bft)
06.03.2013 08:10 5,3 C 4,6 C 77 % 1003,8 hPa 0,0 l/m 0 min 0 min 0,0 UV-I 33 W/m 12,9 km/h (3 Bft)
06.03.2013 08:12 5,3 C 4,6 C 77 % 1003,8 hPa 0,0 l/m 0 min 0 min 0,0 UV-I 35 W/m 7,7 km/h (2 Bft)
06.03.2013 08:14 5,3 C 4,6 C 77 % 1003,8 hPa 0,0 l/m 0 min 0 min 0,0 UV-I 35 W/m 5,1 km/h (1 Bft)
06.03.2013 08:16 5,3 C 4,6 C 77 % 1003,9 hPa 0,0 l/m 0 min 0 min 0,0 UV-I 35 W/m 10,3 km/h (2 Bft)
06.03.2013 08:18 5,3 C 4,6 C 77 % 1003,9 hPa 0,0 l/m 0 min 0 min 0,0 UV-I 37 W/m 7,7 km/h (2 Bft)
06.03.2013 08:20 5,4 C 4,6 C 76 % 1003,8 hPa 0,0 l/m 0 min 0 min 0,0 UV-I 35 W/m 7,7 km/h (2 Bft)
06.03.2013 08:22 5,4 C 4,6 C 76 % 1003,8 hPa 0,0 l/m 0 min 0 min 0,0 UV-I 37 W/m 7,7 km/h (2 Bft)
06.03.2013 08:24 5,4 C 4,6 C 76 % 1003,8 hPa 0,0 l/m 0 min 0 min 0,0 UV-I 40 W/m 10,3 km/h (2 Bft)
06.03.2013 08:26 5,5 C 4,6 C 76 % 1003,8 hPa 0,0 l/m 0 min 0 min 0,0 UV-I 46 W/m 10,3 km/h (2 Bft)
06.03.2013 08:28 5,5 C 4,6 C 76 % 1003,8 hPa 0,0 l/m 0 min 0 min 0,0 UV-I 49 W/m 10,3 km/h (2 Bft)
06.03.2013 08:30 5,6 C 5,1 C 76 % 1003,8 hPa 0,0 l/m 0 min 0 min 0,0 UV-I 53 W/m 10,3 km/h (2 Bft)
06.03.2013 08:32 5,6 C 5,1 C 76 % 1003,8 hPa 0,0 l/m 0 min 0 min 0,0 UV-I 56 W/m 7,7 km/h (2 Bft)
06.03.2013 08:34 5,6 C 5,1 C 76 % 1003,8 hPa 0,0 l/m 0 min 0 min 0,0 UV-I 58 W/m 7,7 km/h (2 Bft)
06.03.2013 08:36 5,6 C 5,1 C 76 % 1003,7 hPa 0,0 l/m 0 min 0 min 0,0 UV-I 60 W/m 10,3 km/h (2 Bft)
06.03.2013 08:38 5,7 C 5,1 C 76 % 1003,8 hPa 0,0 l/m 0 min 0 min 0,0 UV-I 62 W/m 7,7 km/h (2 Bft)
06.03.2013 08:40 5,7 C 5,1 C 76 % 1003,7 hPa 0,0 l/m 0 min 0 min 0,0 UV-I 67 W/m 10,3 km/h (2 Bft)
06.03.2013 08:42 5,7 C 5,1 C 76 % 1003,8 hPa 0,0 l/m 0 min 0 min 0,0 UV-I 72 W/m 7,7 km/h (2 Bft)
06.03.2013 08:44 5,8 C 5,1 C 76 % 1003,7 hPa 0,0 l/m 0 min 0 min 0,0 UV-I 79 W/m 10,3 km/h (2 Bft)
06.03.2013 08:46 5,8 C 5,7 C 76 % 1003,8 hPa 0,0 l/m 0 min 0 min 0,0 UV-I 86 W/m 10,3 km/h (2 Bft)
06.03.2013 08:48 5,8 C 5,7 C 76 % 1003,8 hPa 0,0 l/m 0 min 0 min 0,0 UV-I 91 W/m 12,9 km/h (3 Bft)
06.03.2013 08:50 5,9 C 5,7 C 76 % 1003,8 hPa 0,0 l/m 0 min 0 min 0,0 UV-I 100 W/m 10,3 km/h (2 Bft)
06.03.2013 08:52 5,9 C 5,7 C 75 % 1003,8 hPa 0,0 l/m 2 min 0 min 0,0 UV-I 160 W/m 12,9 km/h (3 Bft)
06.03.2013 08:54 6,0 C 6,2 C 75 % 1003,8 hPa 0,0 l/m 2 min 0 min 0,0 UV-I 220 W/m 12,9 km/h (3 Bft)
06.03.2013 08:56 6,1 C 6,2 C 75 % 1003,8 hPa 0,0 l/m 2 min 0 min 0,0 UV-I 214 W/m 5,1 km/h (1 Bft)
06.03.2013 08:58 6,2 C 6,2 C 75 % 1003,8 hPa 0,0 l/m 2 min 0 min 0,0 UV-I 216 W/m 18,0 km/h (3 Bft)
06.03.2013 09:00 6,2 C 6,2 C 75 % 1003,8 hPa 0,0 l/m 2 min 0 min 0,0 UV-I 209 W/m 12,9 km/h (3 Bft)
06.03.2013 09:02 6,3 C 6,2 C 75 % 1003,9 hPa 0,0 l/m 2 min 0 min 0,0 UV-I 218 W/m 12,9 km/h (3 Bft)
06.03.2013 09:06 6,6 C 6,2 C 75 % 1003,8 hPa 0,0 l/m 2 min 0 min 0,0 UV-I 230 W/m 18,0 km/h (3 Bft)
06.03.2013 09:08 6,7 C 6,2 C 74 % 1003,8 hPa 0,0 l/m 2 min 0 min 0,0 UV-I 232 W/m 12,9 km/h (3 Bft)
06.03.2013 09:10 6,8 C 6,2 C 74 % 1003,8 hPa 0,0 l/m 2 min 0 min 0,0 UV-I 237 W/m 15,4 km/h (3 Bft)
06.03.2013 09:12 7,0 C 6,2 C 73 % 1003,8 hPa 0,0 l/m 2 min 0 min 0,0 UV-I 248 W/m 15,4 km/h (3 Bft)
06.03.2013 09:14 7,2 C 6,2 C 73 % 1003,9 hPa 0,0 l/m 2 min 0 min 0,0 UV-I 255 W/m 20,6 km/h (4 Bft)
06.03.2013 09:16 7,3 C 6,2 C 72 % 1003,9 hPa 0,0 l/m 2 min 0 min 0,0 UV-I 221 W/m 15,4 km/h (3 Bft)
06.03.2013 09:18 7,5 C 6,2 C 72 % 1003,9 hPa 0,0 l/m 0 min 0 min 0,0 UV-I 163 W/m 15,4 km/h (3 Bft)
06.03.2013 09:20 7,6 C 6,2 C 71 % 1003,9 hPa 0,0 l/m 0 min 0 min 0,0 UV-I 149 W/m 18,0 km/h (3 Bft)
06.03.2013 09:22 7,7 C 6,2 C 71 % 1003,8 hPa 0,0 l/m 0 min 0 min 0,0 UV-I 137 W/m 18,0 km/h (3 Bft)
06.03.2013 09:24 7,8 C 6,2 C 70 % 1003,8 hPa 0,0 l/m 0 min 0 min 0,0 UV-I 128 W/m 18,0 km/h (3 Bft)
06.03.2013 09:26 7,8 C 6,2 C 70 % 1003,8 hPa 0,0 l/m 0 min 0 min 0,0 UV-I 128 W/m 20,6 km/h (4 Bft)
06.03.2013 09:28 7,9 C 6,2 C 70 % 1003,8 hPa 0,0 l/m 0 min 0 min 0,0 UV-I 134 W/m 18,0 km/h (3 Bft)
06.03.2013 09:30 7,9 C 6,2 C 70 % 1003,7 hPa 0,0 l/m 0 min 0 min 0,0 UV-I 135 W/m 7,7 km/h (2 Bft)
06.03.2013 09:32 7,9 C 6,8 C 70 % 1003,7 hPa 0,0 l/m 0 min 0 min 0,0 UV-I 141 W/m 10,3 km/h (2 Bft)
06.03.2013 09:34 7,9 C 6,8 C 70 % 1003,7 hPa 0,0 l/m 0 min 0 min 0,0 UV-I 149 W/m 5,1 km/h (1 Bft)
06.03.2013 09:36 8,0 C 6,8 C 70 % 1003,7 hPa 0,0 l/m 0 min 0 min 0,0 UV-I 174 W/m 12,9 km/h (3 Bft)
06.03.2013 09:38 8,1 C 6,8 C 70 % 1003,7 hPa 0,0 l/m 0 min 0 min 0,0 UV-I 176 W/m 10,3 km/h (2 Bft)
06.03.2013 09:40 8,1 C 6,8 C 70 % 1003,7 hPa 0,0 l/m 0 min 0 min 0,0 UV-I 146 W/m 15,4 km/h (3 Bft)
06.03.2013 09:42 8,2 C 6,8 C 70 % 1003,6 hPa 0,0 l/m 0 min 0 min 0,0 UV-I 153 W/m 10,3 km/h (2 Bft)
06.03.2013 09:44 8,2 C 7,3 C 70 % 1003,6 hPa 0,0 l/m 0 min 0 min 0,0 UV-I 156 W/m 10,3 km/h (2 Bft)
06.03.2013 09:46 8,3 C 7,3 C 70 % 1003,6 hPa 0,0 l/m 0 min 0 min 0,0 UV-I 151 W/m 12,9 km/h (3 Bft)
06.03.2013 09:48 8,3 C 7,3 C 70 % 1003,6 hPa 0,0 l/m 0 min 0 min 0,0 UV-I 155 W/m 12,9 km/h (3 Bft)
06.03.2013 09:50 8,4 C 7,9 C 69 % 1003,7 hPa 0,0 l/m 0 min 0 min 0,0 UV-I 155 W/m 12,9 km/h (3 Bft)
06.03.2013 09:52 8,4 C 7,9 C 69 % 1003,7 hPa 0,0 l/m 0 min 0 min 0,0 UV-I 142 W/m 7,7 km/h (2 Bft)
06.03.2013 09:54 8,6 C 7,9 C 69 % 1003,6 hPa 0,0 l/m 0 min 0 min 0,0 UV-I 151 W/m 7,7 km/h (2 Bft)
06.03.2013 09:56 8,6 C 7,9 C 69 % 1003,7 hPa 0,0 l/m 0 min 0 min 0,0 UV-I 158 W/m 7,7 km/h (2 Bft)
06.03.2013 09:58 8,6 C 7,9 C 70 % 1003,6 hPa 0,0 l/m 0 min 0 min 0,0 UV-I 146 W/m 0,0 km/h (0 Bft)
06.03.2013 10:00 8,7 C 7,9 C 70 % 1003,6 hPa 0,0 l/m 0 min 0 min 0,0 UV-I 153 W/m 7,7 km/h (2 Bft)
06.03.2013 10:02 8,8 C 8,4 C 69 % 1003,6 hPa 0,0 l/m 0 min 0 min 0,0 UV-I 163 W/m 5,1 km/h (1 Bft)
06.03.2013 10:04 8,8 C 8,4 C 69 % 1003,6 hPa 0,0 l/m 0 min 0 min 0,0 UV-I 162 W/m 12,9 km/h (3 Bft)
06.03.2013 10:06 8,9 C 8,4 C 69 % 1003,6 hPa 0,0 l/m 0 min 0 min 0,0 UV-I 156 W/m 0,0 km/h (0 Bft)
06.03.2013 10:08 8,9 C 8,4 C 69 % 1003,6 hPa 0,0 l/m 0 min 0 min 0,0 UV-I 156 W/m 5,1 km/h (1 Bft)
06.03.2013 10:10 9,0 C 8,4 C 69 % 1003,6 hPa 0,0 l/m 0 min 0 min 0,0 UV-I 151 W/m 5,1 km/h (1 Bft)
06.03.2013 10:12 9,1 C 8,4 C 69 % 1003,6 hPa 0,0 l/m 0 min 0 min 0,0 UV-I 153 W/m 10,3 km/h (2 Bft)
06.03.2013 10:14 9,2 C 8,4 C 68 % 1003,6 hPa 0,0 l/m 0 min 0 min 0,0 UV-I 171 W/m 7,7 km/h (2 Bft)
06.03.2013 10:16 9,2 C 8,4 C 67 % 1003,6 hPa 0,0 l/m 0 min 0 min 0,0 UV-I 186 W/m 7,7 km/h (2 Bft)
06.03.2013 10:18 9,3 C 8,4 C 68 % 1003,6 hPa 0,0 l/m 0 min 0 min 0,0 UV-I 199 W/m 0,0 km/h (0 Bft)
06.03.2013 10:20 9,4 C 9,0 C 67 % 1003,5 hPa 0,0 l/m 2 min 0 min 0,0 UV-I 241 W/m 5,1 km/h (1 Bft)
06.03.2013 10:22 9,4 C 9,0 C 67 % 1003,5 hPa 0,0 l/m 2 min 0 min 0,0 UV-I 301 W/m 2,6 km/h (1 Bft)
06.03.2013 10:24 9,6 C 9,0 C 66 % 1003,4 hPa 0,0 l/m 2 min 0 min 0,0 UV-I 292 W/m 12,9 km/h (3 Bft)
06.03.2013 10:26 9,7 C 9,6 C 67 % 1003,4 hPa 0,0 l/m 2 min 0 min 0,0 UV-I 255 W/m 7,7 km/h (2 Bft)
06.03.2013 10:28 9,8 C 9,6 C 66 % 1003,4 hPa 0,0 l/m 0 min 0 min 0,0 UV-I 221 W/m 10,3 km/h (2 Bft)
06.03.2013 10:30 9,9 C 9,6 C 66 % 1003,4 hPa 0,0 l/m 0 min 0 min 0,0 UV-I 243 W/m 7,7 km/h (2 Bft)
06.03.2013 10:32 10,1 C 9,6 C 65 % 1003,3 hPa 0,0 l/m 0 min 0 min 0,0 UV-I 158 W/m 12,9 km/h (3 Bft)
06.03.2013 10:34 10,2 C 9,6 C 64 % 1003,3 hPa 0,0 l/m 0 min 0 min 0,0 UV-I 171 W/m 7,7 km/h (2 Bft)
06.03.2013 10:36 10,3 C 9,6 C 64 % 1003,3 hPa 0,0 l/m 2 min 0 min 0,0 UV-I 304 W/m 10,3 km/h (2 Bft)
06.03.2013 10:38 10,4 C 9,6 C 65 % 1003,4 hPa 0,0 l/m 2 min 0 min 0,0 UV-I 260 W/m 10,3 km/h (2 Bft)
06.03.2013 10:40 10,6 C 9,6 C 64 % 1003,3 hPa 0,0 l/m 2 min 0 min 0,6 UV-I 267 W/m 18,0 km/h (3 Bft)
06.03.2013 10:42 10,7 C 10,1 C 64 % 1003,3 hPa 0,0 l/m 2 min 0 min 0,7 UV-I 457 W/m 7,7 km/h (2 Bft)
06.03.2013 10:44 10,9 C 10,7 C 63 % 1003,3 hPa 0,0 l/m 2 min 0 min 0,7 UV-I 432 W/m 12,9 km/h (3 Bft)
06.03.2013 10:46 11,1 C 10,7 C 63 % 1003,4 hPa 0,0 l/m 2 min 0 min 0,7 UV-I 452 W/m 10,3 km/h (2 Bft)
06.03.2013 10:48 11,3 C 10,7 C 62 % 1003,3 hPa 0,0 l/m 2 min 0 min 0,7 UV-I 438 W/m 15,4 km/h (3 Bft)
06.03.2013 10:50 11,5 C 11,2 C 61 % 1003,3 hPa 0,0 l/m 2 min 0 min 0,7 UV-I 422 W/m 5,1 km/h (1 Bft)
06.03.2013 10:52 11,7 C 11,2 C 60 % 1003,3 hPa 0,0 l/m 2 min 0 min 0,8 UV-I 418 W/m 12,9 km/h (3 Bft)
06.03.2013 10:54 11,9 C 11,2 C 59 % 1003,3 hPa 0,0 l/m 2 min 0 min 0,8 UV-I 432 W/m 18,0 km/h (3 Bft)
06.03.2013 10:56 12,1 C 11,8 C 59 % 1003,3 hPa 0,0 l/m 2 min 0 min 0,9 UV-I 485 W/m 20,6 km/h (4 Bft)
06.03.2013 10:58 12,3 C 11,8 C 60 % 1003,2 hPa 0,0 l/m 2 min 0 min 0,9 UV-I 489 W/m 5,1 km/h (1 Bft)
06.03.2013 11:00 12,4 C 12,3 C 60 % 1003,1 hPa 0,0 l/m 2 min 0 min 1,0 UV-I 485 W/m 10,3 km/h (2 Bft)
06.03.2013 11:02 12,6 C 12,3 C 58 % 1003,2 hPa 0,0 l/m 2 min 0 min 1,0 UV-I 485 W/m 12,9 km/h (3 Bft)
06.03.2013 11:04 12,8 C 11,8 C 58 % 1003,2 hPa 0,0 l/m 2 min 0 min 1,0 UV-I 482 W/m 15,4 km/h (3 Bft)
06.03.2013 11:06 12,9 C 11,8 C 56 % 1003,1 hPa 0,0 l/m 2 min 0 min 1,0 UV-I 480 W/m 10,3 km/h (2 Bft)
06.03.2013 11:08 13,1 C 11,8 C 56 % 1003,1 hPa 0,0 l/m 2 min 0 min 1,0 UV-I 471 W/m 12,9 km/h (3 Bft)
06.03.2013 11:10 13,2 C 11,8 C 56 % 1003,1 hPa 0,0 l/m 2 min 0 min 1,0 UV-I 459 W/m 7,7 km/h (2 Bft)
06.03.2013 11:12 13,3 C 11,8 C 55 % 1003,1 hPa 0,0 l/m 2 min 0 min 1,0 UV-I 457 W/m 15,4 km/h (3 Bft)
06.03.2013 11:14 13,4 C 12,3 C 56 % 1003,0 hPa 0,0 l/m 2 min 0 min 1,0 UV-I 450 W/m 10,3 km/h (2 Bft)
06.03.2013 11:16 13,4 C 11,8 C 56 % 1002,9 hPa 0,0 l/m 2 min 0 min 1,0 UV-I 452 W/m 7,7 km/h (2 Bft)
06.03.2013 11:18 13,6 C 11,8 C 55 % 1002,9 hPa 0,0 l/m 2 min 0 min 1,0 UV-I 454 W/m 15,4 km/h (3 Bft)
06.03.2013 11:20 13,6 C 12,3 C 55 % 1002,9 hPa 0,0 l/m 2 min 0 min 1,0 UV-I 450 W/m 10,3 km/h (2 Bft)
06.03.2013 11:22 13,7 C 12,3 C 54 % 1002,9 hPa 0,0 l/m 2 min 0 min 1,0 UV-I 450 W/m 12,9 km/h (3 Bft)
06.03.2013 11:24 13,8 C 12,3 C 54 % 1002,9 hPa 0,0 l/m 2 min 0 min 1,0 UV-I 452 W/m 12,9 km/h (3 Bft)
06.03.2013 11:26 13,9 C 12,3 C 55 % 1002,8 hPa 0,0 l/m 2 min 0 min 1,0 UV-I 455 W/m 12,9 km/h (3 Bft)
06.03.2013 11:28 14,0 C 12,3 C 53 % 1002,8 hPa 0,0 l/m 2 min 0 min 1,0 UV-I 466 W/m 15,4 km/h (3 Bft)
06.03.2013 11:30 14,1 C 11,8 C 53 % 1002,8 hPa 0,0 l/m 2 min 0 min 1,1 UV-I 459 W/m 10,3 km/h (2 Bft)
06.03.2013 11:32 14,1 C 11,8 C 53 % 1002,8 hPa 0,0 l/m 2 min 0 min 1,1 UV-I 473 W/m 10,3 km/h (2 Bft)
06.03.2013 11:34 14,2 C 12,3 C 53 % 1002,8 hPa 0,0 l/m 2 min 0 min 1,1 UV-I 471 W/m 12,9 km/h (3 Bft)
06.03.2013 11:36 14,3 C 12,3 C 53 % 1002,8 hPa 0,0 l/m 2 min 0 min 1,1 UV-I 485 W/m 12,9 km/h (3 Bft)
06.03.2013 11:38 14,3 C 12,3 C 53 % 1002,8 hPa 0,0 l/m 2 min 0 min 1,1 UV-I 445 W/m 18,0 km/h (3 Bft)
06.03.2013 11:40 14,4 C 12,9 C 52 % 1002,7 hPa 0,0 l/m 2 min 0 min 1,2 UV-I 492 W/m 18,0 km/h (3 Bft)
06.03.2013 11:42 14,6 C 12,9 C 52 % 1002,7 hPa 0,0 l/m 2 min 0 min 1,2 UV-I 496 W/m 10,3 km/h (2 Bft)
06.03.2013 11:44 14,7 C 12,9 C 53 % 1002,7 hPa 0,0 l/m 2 min 0 min 1,2 UV-I 487 W/m 5,1 km/h (1 Bft)
06.03.2013 11:46 14,7 C 12,9 C 54 % 1002,6 hPa 0,0 l/m 2 min 0 min 1,2 UV-I 483 W/m 2,6 km/h (1 Bft)
06.03.2013 11:48 14,9 C 12,9 C 54 % 1002,6 hPa 0,0 l/m 2 min 0 min 1,2 UV-I 480 W/m 2,6 km/h (1 Bft)
06.03.2013 11:50 15,0 C 12,9 C 54 % 1002,7 hPa 0,0 l/m 2 min 0 min 1,2 UV-I 480 W/m 2,6 km/h (1 Bft)
06.03.2013 11:52 15,0 C 12,9 C 52 % 1002,7 hPa 0,0 l/m 2 min 0 min 1,2 UV-I 475 W/m 7,7 km/h (2 Bft)
06.03.2013 11:54 15,1 C 12,9 C 52 % 1002,5 hPa 0,0 l/m 2 min 0 min 1,3 UV-I 483 W/m 12,9 km/h (3 Bft)
06.03.2013 11:56 15,2 C 12,9 C 52 % 1002,5 hPa 0,0 l/m 2 min 0 min 1,2 UV-I 482 W/m 12,9 km/h (3 Bft)
06.03.2013 11:58 15,3 C 12,9 C 52 % 1002,5 hPa 0,0 l/m 2 min 0 min 1,3 UV-I 499 W/m 15,4 km/h (3 Bft)
06.03.2013 12:00 15,4 C 13,4 C 51 % 1002,5 hPa 0,0 l/m 2 min 0 min 1,3 UV-I 473 W/m 20,6 km/h (4 Bft)
06.03.2013 12:02 15,4 C 13,4 C 50 % 1002,5 hPa 0,0 l/m 2 min 0 min 1,3 UV-I 512 W/m 15,4 km/h (3 Bft)
06.03.2013 12:06 15,6 C 13,4 C 51 % 1002,6 hPa 0,0 l/m 2 min 0 min 1,1 UV-I 411 W/m 7,7 km/h (2 Bft)
06.03.2013 12:08 15,7 C 13,4 C 50 % 1002,5 hPa 0,0 l/m 2 min 0 min 0,9 UV-I 348 W/m 12,9 km/h (3 Bft)
06.03.2013 12:10 15,7 C 13,4 C 49 % 1002,6 hPa 0,0 l/m 2 min 0 min 1,1 UV-I 403 W/m 12,9 km/h (3 Bft)
06.03.2013 12:12 15,8 C 13,4 C 49 % 1002,7 hPa 0,0 l/m 2 min 0 min 1,1 UV-I 394 W/m 12,9 km/h (3 Bft)
06.03.2013 12:14 15,8 C 13,4 C 49 % 1002,6 hPa 0,0 l/m 2 min 0 min 1,1 UV-I 397 W/m 10,3 km/h (2 Bft)
06.03.2013 12:16 15,8 C 13,4 C 49 % 1002,5 hPa 0,0 l/m 2 min 0 min 1,0 UV-I 359 W/m 12,9 km/h (3 Bft)
06.03.2013 12:18 15,9 C 13,4 C 48 % 1002,5 hPa 0,0 l/m 2 min 0 min 0,9 UV-I 322 W/m 10,3 km/h (2 Bft)
06.03.2013 12:20 15,9 C 14,0 C 49 % 1002,6 hPa 0,0 l/m 2 min 0 min 1,3 UV-I 494 W/m 12,9 km/h (3 Bft)
06.03.2013 12:22 15,9 C 14,0 C 48 % 1002,5 hPa 0,0 l/m 2 min 0 min 1,3 UV-I 506 W/m 12,9 km/h (3 Bft)
06.03.2013 12:24 16,0 C 14,0 C 48 % 1002,6 hPa 0,0 l/m 2 min 0 min 1,2 UV-I 450 W/m 15,4 km/h (3 Bft)
06.03.2013 12:26 16,1 C 14,0 C 48 % 1002,6 hPa 0,0 l/m 2 min 0 min 1,3 UV-I 473 W/m 10,3 km/h (2 Bft)
06.03.2013 12:28 16,2 C 14,6 C 48 % 1002,5 hPa 0,0 l/m 2 min 0 min 1,4 UV-I 529 W/m 10,3 km/h (2 Bft)
06.03.2013 12:30 16,2 C 14,6 C 49 % 1002,5 hPa 0,0 l/m 2 min 0 min 1,3 UV-I 494 W/m 7,7 km/h (2 Bft)
06.03.2013 12:32 16,3 C 15,1 C 49 % 1002,5 hPa 0,0 l/m 2 min 0 min 1,4 UV-I 543 W/m 5,1 km/h (1 Bft)
06.03.2013 12:34 16,4 C 14,6 C 47 % 1002,5 hPa 0,0 l/m 2 min 0 min 1,4 UV-I 527 W/m 18,0 km/h (3 Bft)
06.03.2013 12:36 16,4 C 14,6 C 47 % 1002,4 hPa 0,0 l/m 2 min 0 min 1,6 UV-I 605 W/m 12,9 km/h (3 Bft)
06.03.2013 12:38 16,6 C 15,1 C 47 % 1002,5 hPa 0,0 l/m 2 min 0 min 1,3 UV-I 610 W/m 5,1 km/h (1 Bft)
06.03.2013 12:40 16,6 C 15,1 C 46 % 1002,4 hPa 0,0 l/m 2 min 0 min 1,1 UV-I 323 W/m 18,0 km/h (3 Bft)
06.03.2013 12:42 16,7 C 15,1 C 45 % 1002,4 hPa 0,0 l/m 2 min 0 min 1,5 UV-I 483 W/m 12,9 km/h (3 Bft)
06.03.2013 12:44 16,8 C 15,7 C 44 % 1002,4 hPa 0,0 l/m 2 min 0 min 1,6 UV-I 642 W/m 12,9 km/h (3 Bft)
06.03.2013 12:46 16,8 C 15,1 C 44 % 1002,3 hPa 0,0 l/m 2 min 0 min 1,2 UV-I 350 W/m 7,7 km/h (2 Bft)
06.03.2013 12:48 16,9 C 15,1 C 44 % 1002,3 hPa 0,0 l/m 2 min 0 min 1,1 UV-I 336 W/m 5,1 km/h (1 Bft)
06.03.2013 12:50 16,9 C 15,1 C 45 % 1002,3 hPa 0,0 l/m 0 min 0 min 1,0 UV-I 301 W/m 2,6 km/h (1 Bft)
06.03.2013 12:52 17,0 C 14,6 C 45 % 1002,3 hPa 0,0 l/m 2 min 0 min 1,2 UV-I 357 W/m 2,6 km/h (1 Bft)
06.03.2013 12:54 17,1 C 15,1 C 44 % 1002,3 hPa 0,0 l/m 2 min 0 min 1,3 UV-I 471 W/m 10,3 km/h (2 Bft)
06.03.2013 12:56 17,1 C 15,1 C 46 % 1002,3 hPa 0,0 l/m 2 min 0 min 1,5 UV-I 587 W/m 0,0 km/h (0 Bft)
06.03.2013 12:58 17,2 C 15,1 C 44 % 1002,3 hPa 0,0 l/m 2 min 0 min 1,5 UV-I 571 W/m 7,7 km/h (2 Bft)
06.03.2013 13:00 17,2 C 15,1 C 43 % 1002,3 hPa 0,0 l/m 2 min 0 min 1,5 UV-I 566 W/m 10,3 km/h (2 Bft)
06.03.2013 13:02 17,3 C 15,7 C 43 % 1002,3 hPa 0,0 l/m 2 min 0 min 1,5 UV-I 573 W/m 2,6 km/h (1 Bft)
06.03.2013 13:04 17,4 C 15,7 C 43 % 1002,3 hPa 0,0 l/m 2 min 0 min 1,6 UV-I 622 W/m 12,9 km/h (3 Bft)
06.03.2013 13:06 17,5 C 15,7 C 44 % 1002,3 hPa 0,0 l/m 2 min 0 min 1,5 UV-I 589 W/m 10,3 km/h (2 Bft)
06.03.2013 13:08 17,6 C 15,7 C 41 % 1002,2 hPa 0,0 l/m 2 min 0 min 1,3 UV-I 526 W/m 10,3 km/h (2 Bft)
06.03.2013 13:10 17,7 C 15,7 C 41 % 1002,2 hPa 0,0 l/m 2 min 0 min 1,2 UV-I 345 W/m 7,7 km/h (2 Bft)
06.03.2013 13:12 17,8 C 16,2 C 41 % 1002,3 hPa 0,0 l/m 2 min 0 min 1,4 UV-I 446 W/m 12,9 km/h (3 Bft)
06.03.2013 13:14 17,8 C 16,2 C 40 % 1002,1 hPa 0,0 l/m 2 min 0 min 1,2 UV-I 512 W/m 12,9 km/h (3 Bft)
06.03.2013 13:16 17,9 C 16,2 C 40 % 1002,0 hPa 0,0 l/m 2 min 0 min 1,1 UV-I 380 W/m 18,0 km/h (3 Bft)
06.03.2013 13:18 17,9 C 16,2 C 40 % 1002,0 hPa 0,0 l/m 2 min 0 min 1,3 UV-I 406 W/m 15,4 km/h (3 Bft)
06.03.2013 13:20 17,9 C 16,2 C 40 % 1001,9 hPa 0,0 l/m 2 min 0 min 1,1 UV-I 353 W/m 12,9 km/h (3 Bft)
06.03.2013 13:22 17,9 C 16,2 C 39 % 1001,9 hPa 0,0 l/m 2 min 0 min 1,1 UV-I 327 W/m 12,9 km/h (3 Bft)
06.03.2013 13:24 17,9 C 16,2 C 38 % 1001,8 hPa 0,0 l/m 2 min 0 min 1,2 UV-I 425 W/m 10,3 km/h (2 Bft)
06.03.2013 13:26 18,0 C 16,2 C 37 % 1001,8 hPa 0,0 l/m 2 min 0 min 1,1 UV-I 376 W/m 15,4 km/h (3 Bft)
06.03.2013 13:28 18,0 C 16,2 C 37 % 1001,8 hPa 0,0 l/m 2 min 0 min 1,2 UV-I 446 W/m 15,4 km/h (3 Bft)
06.03.2013 13:30 18,0 C 16,8 C 37 % 1001,7 hPa 0,0 l/m 2 min 0 min 1,3 UV-I 438 W/m 5,1 km/h (1 Bft)
06.03.2013 13:32 18,1 C 16,8 C 36 % 1001,7 hPa 0,0 l/m 2 min 0 min 1,4 UV-I 547 W/m 15,4 km/h (3 Bft)
06.03.2013 13:34 18,1 C 16,8 C 36 % 1001,7 hPa 0,0 l/m 2 min 0 min 1,4 UV-I 596 W/m 12,9 km/h (3 Bft)
06.03.2013 13:36 18,2 C 16,8 C 38 % 1001,7 hPa 0,0 l/m 2 min 0 min 1,3 UV-I 540 W/m 18,0 km/h (3 Bft)
06.03.2013 13:38 18,2 C 17,3 C 38 % 1001,7 hPa 0,0 l/m 2 min 0 min 1,3 UV-I 496 W/m 12,9 km/h (3 Bft)
06.03.2013 13:40 18,3 C 17,3 C 38 % 1001,6 hPa 0,0 l/m 2 min 0 min 1,3 UV-I 473 W/m 10,3 km/h (2 Bft)
06.03.2013 13:42 18,4 C 17,3 C 38 % 1001,6 hPa 0,0 l/m 2 min 0 min 1,2 UV-I 443 W/m 15,4 km/h (3 Bft)
06.03.2013 13:44 18,4 C 17,9 C 37 % 1001,6 hPa 0,0 l/m 2 min 0 min 1,4 UV-I 512 W/m 10,3 km/h (2 Bft)
06.03.2013 13:46 18,6 C 17,9 C 38 % 1001,5 hPa 0,0 l/m 2 min 0 min 1,5 UV-I 575 W/m 12,9 km/h (3 Bft)
06.03.2013 13:48 18,7 C 17,9 C 38 % 1001,6 hPa 0,0 l/m 2 min 0 min 1,5 UV-I 636 W/m 10,3 km/h (2 Bft)
06.03.2013 13:50 18,7 C 17,9 C 37 % 1001,6 hPa 0,0 l/m 2 min 0 min 1,5 UV-I 584 W/m 12,9 km/h (3 Bft)
06.03.2013 13:52 18,8 C 17,9 C 36 % 1001,5 hPa 0,0 l/m 2 min 0 min 1,5 UV-I 633 W/m 7,7 km/h (2 Bft)
06.03.2013 13:54 18,9 C 17,3 C 37 % 1001,5 hPa 0,0 l/m 0 min 0 min 0,9 UV-I 269 W/m 12,9 km/h (3 Bft)
06.03.2013 13:56 18,9 C 17,3 C 37 % 1001,5 hPa 0,0 l/m 2 min 0 min 1,1 UV-I 316 W/m 10,3 km/h (2 Bft)
06.03.2013 13:58 19,0 C 17,3 C 39 % 1001,5 hPa 0,0 l/m 2 min 0 min 1,2 UV-I 464 W/m 12,9 km/h (3 Bft)
06.03.2013 14:00 19,0 C 17,3 C 41 % 1001,4 hPa 0,0 l/m 2 min 0 min 1,2 UV-I 503 W/m 2,6 km/h (1 Bft)
06.03.2013 14:02 19,1 C 17,3 C 40 % 1001,4 hPa 0,0 l/m 2 min 0 min 1,3 UV-I 552 W/m 2,6 km/h (1 Bft)
06.03.2013 14:04 19,1 C 17,3 C 39 % 1001,4 hPa 0,0 l/m 2 min 0 min 0,9 UV-I 378 W/m 10,3 km/h (2 Bft)
06.03.2013 14:06 19,2 C 17,3 C 41 % 1001,4 hPa 0,0 l/m 2 min 0 min 0,9 UV-I 332 W/m 0,0 km/h (0 Bft)
06.03.2013 14:08 19,2 C 17,3 C 41 % 1001,4 hPa 0,0 l/m 2 min 0 min 0,8 UV-I 316 W/m 0,0 km/h (0 Bft)
06.03.2013 14:10 19,2 C 16,8 C 40 % 1001,4 hPa 0,0 l/m 2 min 0 min 0,8 UV-I 308 W/m 5,1 km/h (1 Bft)
06.03.2013 14:12 19,2 C 16,8 C 39 % 1001,3 hPa 0,0 l/m 2 min 0 min 0,8 UV-I 325 W/m 10,3 km/h (2 Bft)
06.03.2013 14:14 19,2 C 16,8 C 39 % 1001,3 hPa 0,0 l/m 2 min 0 min 0,8 UV-I 301 W/m 5,1 km/h (1 Bft)
06.03.2013 14:16 19,2 C 16,8 C 39 % 1001,3 hPa 0,0 l/m 0 min 0 min 0,6 UV-I 232 W/m 2,6 km/h (1 Bft)
06.03.2013 14:18 19,1 C 16,8 C 39 % 1001,3 hPa 0,0 l/m 0 min 0 min 0,6 UV-I 223 W/m 2,6 km/h (1 Bft)
06.03.2013 14:20 19,1 C 16,8 C 38 % 1001,2 hPa 0,0 l/m 2 min 0 min 0,7 UV-I 371 W/m 2,6 km/h (1 Bft)
06.03.2013 14:22 19,1 C 16,8 C 40 % 1001,3 hPa 0,0 l/m 2 min 0 min 0,9 UV-I 441 W/m 0,0 km/h (0 Bft)
06.03.2013 14:24 19,1 C 16,8 C 40 % 1001,3 hPa 0,0 l/m 2 min 0 min 0,8 UV-I 380 W/m 0,0 km/h (0 Bft)
06.03.2013 14:26 19,1 C 16,8 C 38 % 1001,3 hPa 0,0 l/m 2 min 0 min 0,7 UV-I 315 W/m 2,6 km/h (1 Bft)
06.03.2013 14:28 19,1 C 16,8 C 37 % 1001,2 hPa 0,0 l/m 0 min 0 min 0,6 UV-I 253 W/m 2,6 km/h (1 Bft)
06.03.2013 14:30 19,0 C 16,8 C 37 % 1001,2 hPa 0,0 l/m 0 min 0 min 0,5 UV-I 220 W/m 0,0 km/h (0 Bft)
06.03.2013 14:32 19,0 C 16,8 C 37 % 1001,2 hPa 0,0 l/m 0 min 0 min 0,5 UV-I 225 W/m 0,0 km/h (0 Bft)
06.03.2013 14:34 19,0 C 16,8 C 38 % 1001,3 hPa 0,0 l/m 0 min 0 min 0,6 UV-I 264 W/m 0,0 km/h (0 Bft)
06.03.2013 14:36 19,0 C 16,8 C 37 % 1001,3 hPa 0,0 l/m 2 min 0 min 0,6 UV-I 308 W/m 7,7 km/h (2 Bft)
06.03.2013 14:38 19,0 C 16,8 C 37 % 1001,2 hPa 0,0 l/m 2 min 0 min 0,7 UV-I 385 W/m 0,0 km/h (0 Bft)
06.03.2013 14:40 19,0 C 16,8 C 38 % 1001,1 hPa 0,0 l/m 2 min 0 min 0,9 UV-I 475 W/m 0,0 km/h (0 Bft)
06.03.2013 14:42 19,1 C 17,3 C 37 % 1001,1 hPa 0,0 l/m 2 min 0 min 0,9 UV-I 499 W/m 2,6 km/h (1 Bft)
06.03.2013 14:44 19,1 C 17,3 C 37 % 1001,1 hPa 0,0 l/m 2 min 0 min 0,9 UV-I 475 W/m 7,7 km/h (2 Bft)
06.03.2013 14:46 19,1 C 17,9 C 37 % 1001,0 hPa 0,0 l/m 2 min 0 min 0,9 UV-I 450 W/m 10,3 km/h (2 Bft)
06.03.2013 14:48 19,1 C 17,9 C 38 % 1001,0 hPa 0,0 l/m 2 min 0 min 0,8 UV-I 413 W/m 12,9 km/h (3 Bft)
06.03.2013 14:50 19,2 C 17,9 C 38 % 1001,0 hPa 0,0 l/m 2 min 0 min 0,8 UV-I 352 W/m 7,7 km/h (2 Bft)
06.03.2013 14:52 19,2 C 17,9 C 38 % 1001,0 hPa 0,0 l/m 2 min 0 min 0,6 UV-I 283 W/m 12,9 km/h (3 Bft)
06.03.2013 14:54 19,2 C 17,9 C 39 % 1001,0 hPa 0,0 l/m 2 min 0 min 0,7 UV-I 318 W/m 2,6 km/h (1 Bft)
06.03.2013 14:56 19,3 C 17,9 C 40 % 1001,1 hPa 0,0 l/m 2 min 0 min 0,6 UV-I 255 W/m 10,3 km/h (2 Bft)
06.03.2013 14:58 19,3 C 17,9 C 37 % 1001,0 hPa 0,0 l/m 2 min 0 min 0,6 UV-I 329 W/m 12,9 km/h (3 Bft)
06.03.2013 15:00 19,3 C 17,9 C 38 % 1000,9 hPa 0,0 l/m 2 min 0 min 0,6 UV-I 350 W/m 10,3 km/h (2 Bft)
06.03.2013 15:02 19,3 C 17,3 C 39 % 1001,0 hPa 0,0 l/m 2 min 0 min 0,6 UV-I 371 W/m 2,6 km/h (1 Bft)
06.03.2013 15:06 19,3 C 17,3 C 39 % 1000,9 hPa 0,0 l/m 2 min 0 min 0,5 UV-I 301 W/m 7,7 km/h (2 Bft)
06.03.2013 15:08 19,3 C 17,3 C 37 % 1000,9 hPa 0,0 l/m 0 min 0 min 0,0 UV-I 236 W/m 2,6 km/h (1 Bft)
06.03.2013 15:10 19,4 C 16,8 C 39 % 1000,9 hPa 0,0 l/m 0 min 0 min 0,0 UV-I 211 W/m 0,0 km/h (0 Bft)
06.03.2013 15:12 19,4 C 16,8 C 38 % 1000,9 hPa 0,0 l/m 0 min 0 min 0,0 UV-I 185 W/m 2,6 km/h (1 Bft)
06.03.2013 15:14 19,4 C 16,8 C 38 % 1000,8 hPa 0,0 l/m 0 min 0 min 0,0 UV-I 174 W/m 0,0 km/h (0 Bft)
06.03.2013 15:16 19,3 C 16,2 C 38 % 1000,8 hPa 0,0 l/m 0 min 0 min 0,0 UV-I 207 W/m 0,0 km/h (0 Bft)
06.03.2013 15:18 19,3 C 16,8 C 38 % 1000,8 hPa 0,0 l/m 0 min 0 min 0,0 UV-I 227 W/m 0,0 km/h (0 Bft)
06.03.2013 15:20 19,3 C 16,2 C 38 % 1000,8 hPa 0,0 l/m 2 min 0 min 0,0 UV-I 257 W/m 0,0 km/h (0 Bft)
06.03.2013 15:22 19,3 C 16,2 C 38 % 1000,8 hPa 0,0 l/m 2 min 0 min 0,0 UV-I 264 W/m 0,0 km/h (0 Bft)
06.03.2013 15:24 19,3 C 16,2 C 37 % 1000,7 hPa 0,0 l/m 2 min 0 min 0,0 UV-I 316 W/m 0,0 km/h (0 Bft)
06.03.2013 15:26 19,3 C 16,2 C 37 % 1000,7 hPa 0,0 l/m 2 min 0 min 0,0 UV-I 366 W/m 0,0 km/h (0 Bft)
06.03.2013 15:28 19,2 C 16,2 C 37 % 1000,7 hPa 0,0 l/m 2 min 0 min 0,0 UV-I 388 W/m 2,6 km/h (1 Bft)
06.03.2013 15:30 19,2 C 16,8 C 38 % 1000,7 hPa 0,0 l/m 2 min 0 min 0,5 UV-I 410 W/m 5,1 km/h (1 Bft)
06.03.2013 15:32 19,2 C 16,8 C 37 % 1000,7 hPa 0,0 l/m 2 min 0 min 0,5 UV-I 448 W/m 2,6 km/h (1 Bft)
06.03.2013 15:34 19,2 C 17,3 C 37 % 1000,7 hPa 0,0 l/m 2 min 0 min 0,5 UV-I 454 W/m 0,0 km/h (0 Bft)
06.03.2013 15:36 19,2 C 17,3 C 37 % 1000,7 hPa 0,0 l/m 2 min 0 min 0,5 UV-I 434 W/m 0,0 km/h (0 Bft)
06.03.2013 15:38 19,3 C 17,3 C 36 % 1000,6 hPa 0,0 l/m 2 min 0 min 0,5 UV-I 420 W/m 0,0 km/h (0 Bft)
06.03.2013 15:40 19,3 C 17,9 C 37 % 1000,6 hPa 0,0 l/m 2 min 0 min 0,5 UV-I 424 W/m 0,0 km/h (0 Bft)
06.03.2013 15:42 19,4 C 17,9 C 36 % 1000,6 hPa 0,0 l/m 2 min 0 min 0,5 UV-I 432 W/m 7,7 km/h (2 Bft)
06.03.2013 15:44 19,4 C 17,9 C 37 % 1000,6 hPa 0,0 l/m 2 min 0 min 0,5 UV-I 422 W/m 0,0 km/h (0 Bft)
06.03.2013 15:46 19,4 C 17,9 C 38 % 1000,6 hPa 0,0 l/m 2 min 0 min 0,5 UV-I 411 W/m 5,1 km/h (1 Bft)
06.03.2013 15:48 19,6 C 18,4 C 39 % 1000,6 hPa 0,0 l/m 2 min 0 min 0,0 UV-I 397 W/m 10,3 km/h (2 Bft)
06.03.2013 15:50 19,6 C 18,4 C 39 % 1000,6 hPa 0,0 l/m 2 min 0 min 0,0 UV-I 392 W/m 7,7 km/h (2 Bft)
06.03.2013 15:52 19,6 C 18,4 C 39 % 1000,5 hPa 0,0 l/m 2 min 0 min 0,0 UV-I 390 W/m 2,6 km/h (1 Bft)
06.03.2013 15:54 19,6 C 19,0 C 39 % 1000,5 hPa 0,0 l/m 2 min 0 min 0,0 UV-I 394 W/m 5,1 km/h (1 Bft)
06.03.2013 15:56 19,6 C 19,0 C 38 % 1000,5 hPa 0,0 l/m 2 min 0 min 0,0 UV-I 399 W/m 15,4 km/h (3 Bft)
06.03.2013 15:58 19,5 C 18,4 C 38 % 1000,4 hPa 0,0 l/m 2 min 0 min 0,0 UV-I 396 W/m 2,6 km/h (1 Bft)
06.03.2013 16:00 19,5 C 18,4 C 38 % 1000,4 hPa 0,0 l/m 2 min 0 min 0,0 UV-I 380 W/m 10,3 km/h (2 Bft)
06.03.2013 16:02 19,5 C 17,9 C 39 % 1000,4 hPa 0,0 l/m 2 min 0 min 0,0 UV-I 362 W/m 10,3 km/h (2 Bft)
06.03.2013 16:04 19,4 C 17,9 C 38 % 1000,4 hPa 0,0 l/m 2 min 0 min 0,0 UV-I 348 W/m 7,7 km/h (2 Bft)
06.03.2013 16:06 19,4 C 17,3 C 38 % 1000,4 hPa 0,0 l/m 2 min 0 min 0,0 UV-I 339 W/m 7,7 km/h (2 Bft)
06.03.2013 16:08 19,4 C 17,3 C 38 % 1000,4 hPa 0,0 l/m 2 min 0 min 0,0 UV-I 338 W/m 7,7 km/h (2 Bft)
06.03.2013 16:10 19,4 C 17,3 C 39 % 1000,4 hPa 0,0 l/m 2 min 0 min 0,0 UV-I 323 W/m 10,3 km/h (2 Bft)
06.03.2013 16:12 19,4 C 17,3 C 38 % 1000,4 hPa 0,0 l/m 2 min 0 min 0,0 UV-I 269 W/m 10,3 km/h (2 Bft)
06.03.2013 16:14 19,4 C 17,3 C 39 % 1000,4 hPa 0,0 l/m 2 min 0 min 0,0 UV-I 283 W/m 10,3 km/h (2 Bft)
06.03.2013 16:16 19,4 C 17,3 C 38 % 1000,4 hPa 0,0 l/m 2 min 0 min 0,0 UV-I 285 W/m 0,0 km/h (0 Bft)
06.03.2013 16:18 19,3 C 17,3 C 38 % 1000,4 hPa 0,0 l/m 2 min 0 min 0,0 UV-I 276 W/m 2,6 km/h (1 Bft)
06.03.2013 16:20 19,3 C 17,3 C 38 % 1000,4 hPa 0,0 l/m 2 min 0 min 0,0 UV-I 269 W/m 2,6 km/h (1 Bft)
06.03.2013 16:22 19,3 C 16,8 C 39 % 1000,3 hPa 0,0 l/m 2 min 0 min 0,0 UV-I 264 W/m 2,6 km/h (1 Bft)
06.03.2013 16:24 19,3 C 16,8 C 40 % 1000,4 hPa 0,0 l/m 2 min 0 min 0,0 UV-I 257 W/m 2,6 km/h (1 Bft)
06.03.2013 16:26 19,3 C 16,8 C 41 % 1000,3 hPa 0,0 l/m 2 min 0 min 0,0 UV-I 248 W/m 5,1 km/h (1 Bft)
06.03.2013 16:28 19,3 C 16,8 C 41 % 1000,3 hPa 0,0 l/m 2 min 0 min 0,0 UV-I 246 W/m 10,3 km/h (2 Bft)
06.03.2013 16:30 19,3 C 16,8 C 41 % 1000,3 hPa 0,0 l/m 2 min 0 min 0,0 UV-I 234 W/m 10,3 km/h (2 Bft)
06.03.2013 16:32 19,3 C 16,8 C 40 % 1000,2 hPa 0,0 l/m 0 min 0 min 0,0 UV-I 132 W/m 12,9 km/h (3 Bft)
06.03.2013 16:34 19,2 C 16,8 C 41 % 1000,2 hPa 0,0 l/m 0 min 0 min 0,0 UV-I 74 W/m 10,3 km/h (2 Bft)
06.03.2013 16:36 19,2 C 16,8 C 40 % 1000,2 hPa 0,0 l/m 0 min 0 min 0,0 UV-I 70 W/m 10,3 km/h (2 Bft)
06.03.2013 16:38 19,2 C 16,2 C 41 % 1000,2 hPa 0,0 l/m 0 min 0 min 0,0 UV-I 72 W/m 10,3 km/h (2 Bft)
06.03.2013 16:40 19,1 C 16,2 C 41 % 1000,2 hPa 0,0 l/m 0 min 0 min 0,0 UV-I 125 W/m 5,1 km/h (1 Bft)
06.03.2013 16:42 19,0 C 16,2 C 42 % 1000,2 hPa 0,0 l/m 0 min 0 min 0,0 UV-I 104 W/m 12,9 km/h (3 Bft)
06.03.2013 16:44 18,9 C 16,2 C 41 % 1000,2 hPa 0,0 l/m 0 min 0 min 0,0 UV-I 95 W/m 12,9 km/h (3 Bft)
06.03.2013 16:46 18,8 C 15,7 C 42 % 1000,2 hPa 0,0 l/m 0 min 0 min 0,0 UV-I 118 W/m 7,7 km/h (2 Bft)
06.03.2013 16:48 18,8 C 15,7 C 42 % 1000,2 hPa 0,0 l/m 0 min 0 min 0,0 UV-I 114 W/m 7,7 km/h (2 Bft)
06.03.2013 16:50 18,7 C 15,7 C 42 % 1000,2 hPa 0,0 l/m 0 min 0 min 0,0 UV-I 111 W/m 7,7 km/h (2 Bft)
06.03.2013 16:52 18,6 C 15,7 C 42 % 1000,1 hPa 0,0 l/m 0 min 0 min 0,0 UV-I 109 W/m 2,6 km/h (1 Bft)
06.03.2013 16:54 18,6 C 15,1 C 42 % 1000,1 hPa 0,0 l/m 0 min 0 min 0,0 UV-I 91 W/m 2,6 km/h (1 Bft)
06.03.2013 16:56 18,5 C 15,1 C 42 % 1000,1 hPa 0,0 l/m 0 min 0 min 0,0 UV-I 70 W/m 2,6 km/h (1 Bft)
06.03.2013 16:58 18,4 C 15,1 C 42 % 1000,1 hPa 0,0 l/m 0 min 0 min 0,0 UV-I 76 W/m 2,6 km/h (1 Bft)
06.03.2013 17:00 18,3 C 14,6 C 43 % 1000,1 hPa 0,0 l/m 0 min 0 min 0,0 UV-I 79 W/m 0,0 km/h (0 Bft)
06.03.2013 17:02 18,3 C 14,6 C 43 % 1000,1 hPa 0,0 l/m 0 min 0 min 0,0 UV-I 67 W/m 0,0 km/h (0 Bft)
06.03.2013 17:04 18,2 C 14,0 C 43 % 1000,1 hPa 0,0 l/m 0 min 0 min 0,0 UV-I 53 W/m 2,6 km/h (1 Bft)
06.03.2013 17:06 18,2 C 14,0 C 44 % 1000,1 hPa 0,0 l/m 0 min 0 min 0,0 UV-I 47 W/m 0,0 km/h (0 Bft)
06.03.2013 17:08 18,1 C 14,0 C 44 % 1000,1 hPa 0,0 l/m 0 min 0 min 0,0 UV-I 47 W/m 2,6 km/h (1 Bft)
06.03.2013 17:10 18,0 C 14,0 C 44 % 1000,0 hPa 0,0 l/m 0 min 0 min 0,0 UV-I 49 W/m 2,6 km/h (1 Bft)
06.03.2013 17:12 17,9 C 14,0 C 44 % 1000,0 hPa 0,0 l/m 0 min 0 min 0,0 UV-I 51 W/m 2,6 km/h (1 Bft)
06.03.2013 17:14 17,9 C 14,0 C 45 % 1000,1 hPa 0,0 l/m 0 min 0 min 0,0 UV-I 54 W/m 0,0 km/h (0 Bft)
06.03.2013 17:16 17,8 C 13,4 C 45 % 1000,1 hPa 0,0 l/m 0 min 0 min 0,0 UV-I 53 W/m 0,0 km/h (0 Bft)
06.03.2013 17:18 17,7 C 13,4 C 45 % 1000,0 hPa 0,0 l/m 0 min 0 min 0,0 UV-I 53 W/m 2,6 km/h (1 Bft)
06.03.2013 17:20 17,7 C 13,4 C 45 % 1000,1 hPa 0,0 l/m 0 min 0 min 0,0 UV-I 53 W/m 2,6 km/h (1 Bft)
06.03.2013 17:22 17,6 C 13,4 C 45 % 1000,1 hPa 0,0 l/m 0 min 0 min 0,0 UV-I 51 W/m 0,0 km/h (0 Bft)
06.03.2013 17:24 17,5 C 13,4 C 45 % 1000,1 hPa 0,0 l/m 0 min 0 min 0,0 UV-I 51 W/m 0,0 km/h (0 Bft)
06.03.2013 17:26 17,4 C 12,9 C 45 % 1000,1 hPa 0,0 l/m 0 min 0 min 0,0 UV-I 51 W/m 0,0 km/h (0 Bft)
06.03.2013 17:28 17,4 C 12,9 C 46 % 1000,0 hPa 0,0 l/m 0 min 0 min 0,0 UV-I 49 W/m 0,0 km/h (0 Bft)
06.03.2013 17:30 17,3 C 12,9 C 46 % 1000,1 hPa 0,0 l/m 0 min 0 min 0,0 UV-I 49 W/m 2,6 km/h (1 Bft)
06.03.2013 17:32 17,3 C 12,9 C 46 % 1000,1 hPa 0,0 l/m 0 min 0 min 0,0 UV-I 47 W/m 0,0 km/h (0 Bft)
06.03.2013 17:34 17,2 C 12,3 C 47 % 1000,0 hPa 0,0 l/m 0 min 0 min 0,0 UV-I 46 W/m 0,0 km/h (0 Bft)
06.03.2013 17:36 17,2 C 12,3 C 47 % 1000,0 hPa 0,0 l/m 0 min 0 min 0,0 UV-I 44 W/m 0,0 km/h (0 Bft)
06.03.2013 17:38 17,1 C 12,3 C 47 % 1000,0 hPa 0,0 l/m 0 min 0 min 0,0 UV-I 44 W/m 0,0 km/h (0 Bft)
06.03.2013 17:40 17,1 C 11,8 C 47 % 1000,1 hPa 0,0 l/m 0 min 0 min 0,0 UV-I 42 W/m 0,0 km/h (0 Bft)
06.03.2013 17:42 17,0 C 11,8 C 47 % 1000,1 hPa 0,0 l/m 0 min 0 min 0,0 UV-I 42 W/m 0,0 km/h (0 Bft)
06.03.2013 17:44 16,9 C 11,8 C 48 % 1000,1 hPa 0,0 l/m 0 min 0 min 0,0 UV-I 42 W/m 0,0 km/h (0 Bft)
06.03.2013 17:46 16,9 C 11,8 C 49 % 1000,1 hPa 0,0 l/m 0 min 0 min 0,0 UV-I 44 W/m 0,0 km/h (0 Bft)
06.03.2013 17:48 16,8 C 11,8 C 48 % 1000,1 hPa 0,0 l/m 2 min 0 min 0,0 UV-I 47 W/m 0,0 km/h (0 Bft)
06.03.2013 17:50 16,8 C 11,8 C 48 % 1000,1 hPa 0,0 l/m 0 min 0 min 0,0 UV-I 37 W/m 0,0 km/h (0 Bft)
06.03.2013 17:52 16,7 C 11,2 C 49 % 1000,1 hPa 0,0 l/m 0 min 0 min 0,0 UV-I 33 W/m 0,0 km/h (0 Bft)
06.03.2013 17:54 16,7 C 11,2 C 50 % 1000,1 hPa 0,0 l/m 0 min 0 min 0,0 UV-I 30 W/m 0,0 km/h (0 Bft)
06.03.2013 17:56 16,6 C 11,2 C 50 % 1000,2 hPa 0,0 l/m 0 min 0 min 0,0 UV-I 28 W/m 0,0 km/h (0 Bft)
06.03.2013 17:58 16,5 C 10,7 C 50 % 1000,2 hPa 0,0 l/m 0 min 0 min 0,0 UV-I 26 W/m 0,0 km/h (0 Bft)
06.03.2013 18:00 16,4 C 10,7 C 50 % 1000,1 hPa 0,0 l/m 0 min 0 min 0,0 UV-I 23 W/m 0,0 km/h (0 Bft)
06.03.2013 18:02 16,4 C 10,7 C 50 % 1000,1 hPa 0,0 l/m 0 min 0 min 0,0 UV-I 21 W/m 0,0 km/h (0 Bft)
06.03.2013 18:06 16,2 C 10,7 C 48 % 1000,1 hPa 0,0 l/m 0 min 0 min 0,0 UV-I 18 W/m 0,0 km/h (0 Bft)
06.03.2013 18:08 16,1 C 10,1 C 48 % 1000,1 hPa 0,0 l/m 0 min 0 min 0,0 UV-I 14 W/m 0,0 km/h (0 Bft)
06.03.2013 18:10 16,0 C 10,1 C 48 % 1000,2 hPa 0,0 l/m 0 min 0 min 0,0 UV-I 12 W/m 0,0 km/h (0 Bft)
06.03.2013 18:12 15,9 C 10,1 C 48 % 1000,2 hPa 0,0 l/m 0 min 0 min 0,0 UV-I 12 W/m 0,0 km/h (0 Bft)
06.03.2013 18:14 15,8 C 10,1 C 47 % 1000,2 hPa 0,0 l/m 0 min 0 min 0,0 UV-I 9 W/m 0,0 km/h (0 Bft)
06.03.2013 18:16 15,7 C 9,6 C 47 % 1000,3 hPa 0,0 l/m 0 min 0 min 0,0 UV-I 7 W/m 0,0 km/h (0 Bft)
06.03.2013 18:18 15,7 C 9,6 C 47 % 1000,2 hPa 0,0 l/m 0 min 0 min 0,0 UV-I 5 W/m 0,0 km/h (0 Bft)
06.03.2013 18:20 15,6 C 9,6 C 47 % 1000,3 hPa 0,0 l/m 0 min 0 min 0,0 UV-I 5 W/m 0,0 km/h (0 Bft)
06.03.2013 18:22 15,4 C 9,6 C 47 % 1000,2 hPa 0,0 l/m 0 min 0 min 0,0 UV-I 0 W/m 0,0 km/h (0 Bft)
06.03.2013 18:24 15,3 C 9,6 C 46 % 1000,3 hPa 0,0 l/m 0 min 0 min 0,0 UV-I 0 W/m 0,0 km/h (0 Bft)
06.03.2013 18:26 15,2 C 9,0 C 47 % 1000,3 hPa 0,0 l/m 0 min 0 min 0,0 UV-I 0 W/m 0,0 km/h (0 Bft)
06.03.2013 18:28 15,2 C 9,0 C 46 % 1000,3 hPa 0,0 l/m 0 min 0 min 0,0 UV-I 0 W/m 0,0 km/h (0 Bft)
06.03.2013 18:30 15,0 C 9,0 C 46 % 1000,3 hPa 0,0 l/m 0 min 0 min 0,0 UV-I 0 W/m 0,0 km/h (0 Bft)
06.03.2013 18:32 15,0 C 9,0 C 46 % 1000,3 hPa 0,0 l/m 0 min 0 min 0,0 UV-I 0 W/m 0,0 km/h (0 Bft)
06.03.2013 18:34 15,0 C 9,0 C 47 % 1000,3 hPa 0,0 l/m 0 min 0 min 0,0 UV-I 0 W/m 0,0 km/h (0 Bft)
06.03.2013 18:36 14,9 C 9,0 C 47 % 1000,3 hPa 0,0 l/m 0 min 0 min 0,0 UV-I 0 W/m 0,0 km/h (0 Bft)
06.03.2013 18:38 14,8 C 9,0 C 47 % 1000,2 hPa 0,0 l/m 0 min 0 min 0,0 UV-I 0 W/m 0,0 km/h (0 Bft)
06.03.2013 18:40 14,7 C 9,0 C 48 % 1000,2 hPa 0,0 l/m 0 min 0 min 0,0 UV-I 0 W/m 0,0 km/h (0 Bft)
06.03.2013 18:42 14,6 C 8,4 C 48 % 1000,3 hPa 0,0 l/m 0 min 0 min 0,0 UV-I 0 W/m 0,0 km/h (0 Bft)
06.03.2013 18:44 14,5 C 8,4 C 48 % 1000,3 hPa 0,0 l/m 0 min 0 min 0,0 UV-I 0 W/m 0,0 km/h (0 Bft)
06.03.2013 18:46 14,4 C 8,4 C 48 % 1000,3 hPa 0,0 l/m 0 min 0 min 0,0 UV-I 0 W/m 0,0 km/h (0 Bft)
06.03.2013 18:48 14,3 C 8,4 C 49 % 1000,3 hPa 0,0 l/m 0 min 0 min 0,0 UV-I 0 W/m 0,0 km/h (0 Bft)
06.03.2013 18:50 14,3 C 8,4 C 49 % 1000,3 hPa 0,0 l/m 0 min 0 min 0,0 UV-I 0 W/m 0,0 km/h (0 Bft)
06.03.2013 18:52 14,2 C 8,4 C 49 % 1000,3 hPa 0,0 l/m 0 min 0 min 0,0 UV-I 0 W/m 0,0 km/h (0 Bft)
06.03.2013 18:54 14,2 C 8,4 C 49 % 1000,3 hPa 0,0 l/m 0 min 0 min 0,0 UV-I 0 W/m 0,0 km/h (0 Bft)
06.03.2013 18:56 14,1 C 8,4 C 49 % 1000,3 hPa 0,0 l/m 0 min 0 min 0,0 UV-I 0 W/m 0,0 km/h (0 Bft)
06.03.2013 18:58 14,1 C 7,9 C 49 % 1000,3 hPa 0,0 l/m 0 min 0 min 0,0 UV-I 0 W/m 0,0 km/h (0 Bft)
06.03.2013 19:00 14,0 C 7,9 C 49 % 1000,4 hPa 0,0 l/m 0 min 0 min 0,0 UV-I 0 W/m 0,0 km/h (0 Bft)
06.03.2013 19:02 13,9 C 7,9 C 49 % 1000,4 hPa 0,0 l/m 0 min 0 min 0,0 UV-I 0 W/m 0,0 km/h (0 Bft)
06.03.2013 19:04 13,9 C 7,9 C 50 % 1000,4 hPa 0,0 l/m 0 min 0 min 0,0 UV-I 0 W/m 0,0 km/h (0 Bft)
06.03.2013 19:06 13,8 C 7,9 C 50 % 1000,4 hPa 0,0 l/m 0 min 0 min 0,0 UV-I 0 W/m 0,0 km/h (0 Bft)
06.03.2013 19:08 13,8 C 7,9 C 50 % 1000,4 hPa 0,0 l/m 0 min 0 min 0,0 UV-I 0 W/m 0,0 km/h (0 Bft)
06.03.2013 19:10 13,7 C 7,9 C 50 % 1000,5 hPa 0,0 l/m 0 min 0 min 0,0 UV-I 0 W/m 0,0 km/h (0 Bft)
06.03.2013 19:12 13,7 C 7,9 C 50 % 1000,5 hPa 0,0 l/m 0 min 0 min 0,0 UV-I 0 W/m 5,1 km/h (1 Bft)
06.03.2013 19:14 13,6 C 7,9 C 50 % 1000,5 hPa 0,0 l/m 0 min 0 min 0,0 UV-I 0 W/m 0,0 km/h (0 Bft)
06.03.2013 19:16 13,6 C 7,9 C 50 % 1000,6 hPa 0,0 l/m 0 min 0 min 0,0 UV-I 0 W/m 0,0 km/h (0 Bft)
06.03.2013 19:18 13,4 C 7,3 C 50 % 1000,5 hPa 0,0 l/m 0 min 0 min 0,0 UV-I 0 W/m 0,0 km/h (0 Bft)
06.03.2013 19:20 13,4 C 7,3 C 51 % 1000,6 hPa 0,0 l/m 0 min 0 min 0,0 UV-I 0 W/m 0,0 km/h (0 Bft)
06.03.2013 19:22 13,3 C 7,3 C 51 % 1000,6 hPa 0,0 l/m 0 min 0 min 0,0 UV-I 0 W/m 0,0 km/h (0 Bft)
06.03.2013 19:24 13,3 C 7,3 C 51 % 1000,6 hPa 0,0 l/m 0 min 0 min 0,0 UV-I 0 W/m 0,0 km/h (0 Bft)
06.03.2013 19:26 13,2 C 7,3 C 51 % 1000,6 hPa 0,0 l/m 0 min 0 min 0,0 UV-I 0 W/m 0,0 km/h (0 Bft)
06.03.2013 19:28 13,2 C 7,3 C 52 % 1000,7 hPa 0,0 l/m 0 min 0 min 0,0 UV-I 0 W/m 0,0 km/h (0 Bft)
06.03.2013 19:30 13,1 C 7,3 C 52 % 1000,7 hPa 0,0 l/m 0 min 0 min 0,0 UV-I 0 W/m 0,0 km/h (0 Bft)
06.03.2013 19:32 13,0 C 7,3 C 52 % 1000,6 hPa 0,0 l/m 0 min 0 min 0,0 UV-I 0 W/m 0,0 km/h (0 Bft)
06.03.2013 19:34 12,9 C 7,3 C 52 % 1000,6 hPa 0,0 l/m 0 min 0 min 0,0 UV-I 0 W/m 0,0 km/h (0 Bft)
06.03.2013 19:36 12,9 C 7,3 C 52 % 1000,6 hPa 0,0 l/m 0 min 0 min 0,0 UV-I 0 W/m 0,0 km/h (0 Bft)
06.03.2013 19:38 12,8 C 6,8 C 53 % 1000,6 hPa 0,0 l/m 0 min 0 min 0,0 UV-I 0 W/m 0,0 km/h (0 Bft)
06.03.2013 19:40 12,8 C 6,8 C 53 % 1000,6 hPa 0,0 l/m 0 min 0 min 0,0 UV-I 0 W/m 0,0 km/h (0 Bft)
06.03.2013 19:42 12,7 C 6,8 C 53 % 1000,7 hPa 0,0 l/m 0 min 0 min 0,0 UV-I 0 W/m 0,0 km/h (0 Bft)
06.03.2013 19:44 12,7 C 6,8 C 53 % 1000,7 hPa 0,0 l/m 0 min 0 min 0,0 UV-I 0 W/m 2,6 km/h (1 Bft)
06.03.2013 19:46 12,6 C 6,8 C 54 % 1000,7 hPa 0,0 l/m 0 min 0 min 0,0 UV-I 0 W/m 0,0 km/h (0 Bft)
06.03.2013 19:48 12,6 C 6,8 C 54 % 1000,7 hPa 0,0 l/m 0 min 0 min 0,0 UV-I 0 W/m 0,0 km/h (0 Bft)
06.03.2013 19:50 12,4 C 6,8 C 54 % 1000,7 hPa 0,0 l/m 0 min 0 min 0,0 UV-I 0 W/m 0,0 km/h (0 Bft)
06.03.2013 19:52 12,4 C 6,8 C 55 % 1000,8 hPa 0,0 l/m 0 min 0 min 0,0 UV-I 0 W/m 0,0 km/h (0 Bft)
06.03.2013 19:54 12,3 C 6,8 C 55 % 1000,7 hPa 0,0 l/m 0 min 0 min 0,0 UV-I 0 W/m 0,0 km/h (0 Bft)
06.03.2013 19:56 12,2 C 6,8 C 55 % 1000,6 hPa 0,0 l/m 0 min 0 min 0,0 UV-I 0 W/m 0,0 km/h (0 Bft)
06.03.2013 19:58 12,2 C 6,8 C 55 % 1000,6 hPa 0,0 l/m 0 min 0 min 0,0 UV-I 0 W/m 0,0 km/h (0 Bft)
06.03.2013 20:00 12,1 C 6,8 C 56 % 1000,5 hPa 0,0 l/m 0 min 0 min 0,0 UV-I 0 W/m 0,0 km/h (0 Bft)
06.03.2013 20:02 12,0 C 6,2 C 56 % 1000,5 hPa 0,0 l/m 0 min 0 min 0,0 UV-I 0 W/m 0,0 km/h (0 Bft)
06.03.2013 20:04 11,9 C 6,2 C 56 % 1000,5 hPa 0,0 l/m 0 min 0 min 0,0 UV-I 0 W/m 0,0 km/h (0 Bft)
06.03.2013 20:06 11,9 C 6,2 C 56 % 1000,5 hPa 0,0 l/m 0 min 0 min 0,0 UV-I 0 W/m 0,0 km/h (0 Bft)
06.03.2013 20:08 11,8 C 6,2 C 56 % 1000,5 hPa 0,0 l/m 0 min 0 min 0,0 UV-I 0 W/m 0,0 km/h (0 Bft)
06.03.2013 20:10 11,8 C 6,2 C 56 % 1000,5 hPa 0,0 l/m 0 min 0 min 0,0 UV-I 0 W/m 0,0 km/h (0 Bft)
06.03.2013 20:12 11,7 C 6,2 C 56 % 1000,5 hPa 0,0 l/m 0 min 0 min 0,0 UV-I 0 W/m 0,0 km/h (0 Bft)
06.03.2013 20:14 11,6 C 6,2 C 57 % 1000,5 hPa 0,0 l/m 0 min 0 min 0,0 UV-I 0 W/m 0,0 km/h (0 Bft)
06.03.2013 20:16 11,6 C 6,2 C 57 % 1000,6 hPa 0,0 l/m 0 min 0 min 0,0 UV-I 0 W/m 0,0 km/h (0 Bft)
06.03.2013 20:18 11,4 C 6,2 C 57 % 1000,5 hPa 0,0 l/m 0 min 0 min 0,0 UV-I 0 W/m 0,0 km/h (0 Bft)
06.03.2013 20:20 11,4 C 6,2 C 57 % 1000,5 hPa 0,0 l/m 0 min 0 min 0,0 UV-I 0 W/m 0,0 km/h (0 Bft)
06.03.2013 20:22 11,3 C 6,2 C 58 % 1000,5 hPa 0,0 l/m 0 min 0 min 0,0 UV-I 0 W/m 0,0 km/h (0 Bft)
06.03.2013 20:24 11,2 C 5,7 C 58 % 1000,4 hPa 0,0 l/m 0 min 0 min 0,0 UV-I 0 W/m 0,0 km/h (0 Bft)
06.03.2013 20:26 11,1 C 5,7 C 58 % 1000,4 hPa 0,0 l/m 0 min 0 min 0,0 UV-I 0 W/m 0,0 km/h (0 Bft)
06.03.2013 20:28 11,1 C 5,7 C 58 % 1000,4 hPa 0,0 l/m 0 min 0 min 0,0 UV-I 0 W/m 0,0 km/h (0 Bft)
06.03.2013 20:30 10,9 C 5,7 C 59 % 1000,4 hPa 0,0 l/m 0 min 0 min 0,0 UV-I 0 W/m 0,0 km/h (0 Bft)
06.03.2013 20:32 10,9 C 5,7 C 59 % 1000,3 hPa 0,0 l/m 0 min 0 min 0,0 UV-I 0 W/m 0,0 km/h (0 Bft)
06.03.2013 20:34 10,8 C 5,7 C 59 % 1000,3 hPa 0,0 l/m 0 min 0 min 0,0 UV-I 0 W/m 0,0 km/h (0 Bft)
06.03.2013 20:36 10,7 C 5,7 C 59 % 1000,3 hPa 0,0 l/m 0 min 0 min 0,0 UV-I 0 W/m 0,0 km/h (0 Bft)
06.03.2013 20:38 10,7 C 5,7 C 60 % 1000,4 hPa 0,0 l/m 0 min 0 min 0,0 UV-I 0 W/m 0,0 km/h (0 Bft)
06.03.2013 20:40 10,6 C 5,7 C 60 % 1000,4 hPa 0,0 l/m 0 min 0 min 0,0 UV-I 0 W/m 0,0 km/h (0 Bft)
06.03.2013 20:42 10,5 C 5,1 C 60 % 1000,3 hPa 0,0 l/m 0 min 0 min 0,0 UV-I 0 W/m 0,0 km/h (0 Bft)
06.03.2013 20:44 10,4 C 5,1 C 60 % 1000,3 hPa 0,0 l/m 0 min 0 min 0,0 UV-I 0 W/m 0,0 km/h (0 Bft)
06.03.2013 20:46 10,3 C 5,1 C 61 % 1000,3 hPa 0,0 l/m 0 min 0 min 0,0 UV-I 0 W/m 0,0 km/h (0 Bft)
06.03.2013 20:48 10,3 C 5,1 C 61 % 1000,3 hPa 0,0 l/m 0 min 0 min 0,0 UV-I 0 W/m 0,0 km/h (0 Bft)
06.03.2013 20:50 10,2 C 5,1 C 61 % 1000,2 hPa 0,0 l/m 0 min 0 min 0,0 UV-I 0 W/m 0,0 km/h (0 Bft)
06.03.2013 20:52 10,1 C 5,1 C 61 % 1000,3 hPa 0,0 l/m 0 min 0 min 0,0 UV-I 0 W/m 0,0 km/h (0 Bft)
06.03.2013 20:54 10,1 C 5,1 C 62 % 1000,3 hPa 0,0 l/m 0 min 0 min 0,0 UV-I 0 W/m 0,0 km/h (0 Bft)
06.03.2013 20:56 9,9 C 5,1 C 62 % 1000,3 hPa 0,0 l/m 0 min 0 min 0,0 UV-I 0 W/m 0,0 km/h (0 Bft)
06.03.2013 20:58 9,9 C 5,1 C 62 % 1000,3 hPa 0,0 l/m 0 min 0 min 0,0 UV-I 0 W/m 0,0 km/h (0 Bft)
06.03.2013 21:00 9,8 C 5,1 C 62 % 1000,3 hPa 0,0 l/m 0 min 0 min 0,0 UV-I 0 W/m 0,0 km/h (0 Bft)
06.03.2013 21:02 9,7 C 5,1 C 63 % 1000,2 hPa 0,0 l/m 0 min 0 min 0,0 UV-I 0 W/m 0,0 km/h (0 Bft)
06.03.2013 21:06 9,6 C 5,1 C 63 % 1000,2 hPa 0,0 l/m 0 min 0 min 0,0 UV-I 0 W/m 0,0 km/h (0 Bft)
06.03.2013 21:08 9,5 C 4,6 C 63 % 1000,2 hPa 0,0 l/m 0 min 0 min 0,0 UV-I 0 W/m 0,0 km/h (0 Bft)
06.03.2013 21:10 9,4 C 4,6 C 63 % 1000,3 hPa 0,0 l/m 0 min 0 min 0,0 UV-I 0 W/m 0,0 km/h (0 Bft)
06.03.2013 21:12 9,3 C 4,6 C 64 % 1000,3 hPa 0,0 l/m 0 min 0 min 0,0 UV-I 0 W/m 0,0 km/h (0 Bft)
06.03.2013 21:14 9,3 C 4,6 C 64 % 1000,3 hPa 0,0 l/m 0 min 0 min 0,0 UV-I 0 W/m 0,0 km/h (0 Bft)
06.03.2013 21:16 9,2 C 4,6 C 64 % 1000,2 hPa 0,0 l/m 0 min 0 min 0,0 UV-I 0 W/m 0,0 km/h (0 Bft)
06.03.2013 21:18 9,2 C 4,6 C 64 % 1000,3 hPa 0,0 l/m 0 min 0 min 0,0 UV-I 0 W/m 0,0 km/h (0 Bft)
06.03.2013 21:20 9,1 C 4,6 C 64 % 1000,3 hPa 0,0 l/m 0 min 0 min 0,0 UV-I 0 W/m 0,0 km/h (0 Bft)
06.03.2013 21:22 9,1 C 4,6 C 64 % 1000,3 hPa 0,0 l/m 0 min 0 min 0,0 UV-I 0 W/m 0,0 km/h (0 Bft)
06.03.2013 21:24 9,0 C 4,6 C 64 % 1000,3 hPa 0,0 l/m 0 min 0 min 0,0 UV-I 0 W/m 0,0 km/h (0 Bft)
06.03.2013 21:26 8,9 C 4,6 C 65 % 1000,2 hPa 0,0 l/m 0 min 0 min 0,0 UV-I 0 W/m 0,0 km/h (0 Bft)
06.03.2013 21:28 8,9 C 4,6 C 65 % 1000,2 hPa 0,0 l/m 0 min 0 min 0,0 UV-I 0 W/m 0,0 km/h (0 Bft)
06.03.2013 21:30 8,8 C 4,6 C 65 % 1000,2 hPa 0,0 l/m 0 min 0 min 0,0 UV-I 0 W/m 0,0 km/h (0 Bft)
06.03.2013 21:32 8,8 C 4,6 C 65 % 1000,2 hPa 0,0 l/m 0 min 0 min 0,0 UV-I 0 W/m 0,0 km/h (0 Bft)
06.03.2013 21:34 8,7 C 4,6 C 65 % 1000,2 hPa 0,0 l/m 0 min 0 min 0,0 UV-I 0 W/m 0,0 km/h (0 Bft)
06.03.2013 21:36 8,7 C 4,6 C 66 % 1000,2 hPa 0,0 l/m 0 min 0 min 0,0 UV-I 0 W/m 0,0 km/h (0 Bft)
06.03.2013 21:38 8,7 C 5,1 C 65 % 1000,3 hPa 0,0 l/m 0 min 0 min 0,0 UV-I 0 W/m 0,0 km/h (0 Bft)
06.03.2013 21:40 8,7 C 5,1 C 66 % 1000,2 hPa 0,0 l/m 0 min 0 min 0,0 UV-I 0 W/m 0,0 km/h (0 Bft)
06.03.2013 21:42 8,7 C 5,1 C 65 % 1000,2 hPa 0,0 l/m 0 min 0 min 0,0 UV-I 0 W/m 0,0 km/h (0 Bft)
06.03.2013 21:44 8,7 C 5,1 C 66 % 1000,2 hPa 0,0 l/m 0 min 0 min 0,0 UV-I 0 W/m 0,0 km/h (0 Bft)
06.03.2013 21:46 8,6 C 5,1 C 66 % 1000,2 hPa 0,0 l/m 0 min 0 min 0,0 UV-I 0 W/m 0,0 km/h (0 Bft)
06.03.2013 21:48 8,6 C 5,1 C 66 % 1000,2 hPa 0,0 l/m 0 min 0 min 0,0 UV-I 0 W/m 0,0 km/h (0 Bft)
06.03.2013 21:50 8,6 C 5,1 C 66 % 1000,2 hPa 0,0 l/m 0 min 0 min 0,0 UV-I 0 W/m 0,0 km/h (0 Bft)
06.03.2013 21:52 8,7 C 5,1 C 66 % 1000,2 hPa 0,0 l/m 0 min 0 min 0,0 UV-I 0 W/m 0,0 km/h (0 Bft)
06.03.2013 21:54 8,7 C 5,1 C 66 % 1000,2 hPa 0,0 l/m 0 min 0 min 0,0 UV-I 0 W/m 0,0 km/h (0 Bft)
06.03.2013 21:56 8,7 C 5,1 C 66 % 1000,2 hPa 0,0 l/m 0 min 0 min 0,0 UV-I 0 W/m 2,6 km/h (1 Bft)
06.03.2013 21:58 8,7 C 5,7 C 66 % 1000,2 hPa 0,0 l/m 0 min 0 min 0,0 UV-I 0 W/m 0,0 km/h (0 Bft)
06.03.2013 22:00 8,8 C 5,7 C 66 % 1000,3 hPa 0,0 l/m 0 min 0 min 0,0 UV-I 0 W/m 0,0 km/h (0 Bft)
06.03.2013 22:02 8,8 C 5,7 C 66 % 1000,2 hPa 0,0 l/m 0 min 0 min 0,0 UV-I 0 W/m 0,0 km/h (0 Bft)
06.03.2013 22:04 8,8 C 5,7 C 66 % 1000,3 hPa 0,0 l/m 0 min 0 min 0,0 UV-I 0 W/m 0,0 km/h (0 Bft)
06.03.2013 22:06 8,9 C 5,7 C 66 % 1000,2 hPa 0,0 l/m 0 min 0 min 0,0 UV-I 0 W/m 0,0 km/h (0 Bft)
06.03.2013 22:08 8,9 C 5,7 C 66 % 1000,2 hPa 0,0 l/m 0 min 0 min 0,0 UV-I 0 W/m 0,0 km/h (0 Bft)
06.03.2013 22:10 8,9 C 5,7 C 65 % 1000,2 hPa 0,0 l/m 0 min 0 min 0,0 UV-I 0 W/m 0,0 km/h (0 Bft)
06.03.2013 22:12 9,0 C 5,7 C 65 % 1000,2 hPa 0,0 l/m 0 min 0 min 0,0 UV-I 0 W/m 0,0 km/h (0 Bft)
06.03.2013 22:14 9,0 C 5,7 C 65 % 1000,2 hPa 0,0 l/m 0 min 0 min 0,0 UV-I 0 W/m 0,0 km/h (0 Bft)
06.03.2013 22:16 9,1 C 5,7 C 65 % 1000,2 hPa 0,0 l/m 0 min 0 min 0,0 UV-I 0 W/m 0,0 km/h (0 Bft)
06.03.2013 22:18 9,1 C 5,7 C 65 % 1000,2 hPa 0,0 l/m 0 min 0 min 0,0 UV-I 0 W/m 2,6 km/h (1 Bft)
06.03.2013 22:20 9,1 C 5,7 C 65 % 1000,2 hPa 0,0 l/m 0 min 0 min 0,0 UV-I 0 W/m 0,0 km/h (0 Bft)
06.03.2013 22:22 9,1 C 5,7 C 65 % 1000,2 hPa 0,0 l/m 0 min 0 min 0,0 UV-I 0 W/m 0,0 km/h (0 Bft)
06.03.2013 22:24 9,2 C 5,7 C 65 % 1000,2 hPa 0,0 l/m 0 min 0 min 0,0 UV-I 0 W/m 0,0 km/h (0 Bft)
06.03.2013 22:26 9,2 C 5,7 C 65 % 1000,2 hPa 0,0 l/m 0 min 0 min 0,0 UV-I 0 W/m 0,0 km/h (0 Bft)
06.03.2013 22:28 9,2 C 5,7 C 65 % 1000,2 hPa 0,0 l/m 0 min 0 min 0,0 UV-I 0 W/m 0,0 km/h (0 Bft)
06.03.2013 22:30 9,2 C 5,7 C 65 % 1000,2 hPa 0,0 l/m 0 min 0 min 0,0 UV-I 0 W/m 0,0 km/h (0 Bft)
06.03.2013 22:32 9,2 C 5,7 C 65 % 1000,3 hPa 0,0 l/m 0 min 0 min 0,0 UV-I 0 W/m 0,0 km/h (0 Bft)
06.03.2013 22:34 9,2 C 5,7 C 65 % 1000,3 hPa 0,0 l/m 0 min 0 min 0,0 UV-I 0 W/m 0,0 km/h (0 Bft)
06.03.2013 22:36 9,2 C 5,1 C 65 % 1000,3 hPa 0,0 l/m 0 min 0 min 0,0 UV-I 0 W/m 0,0 km/h (0 Bft)
06.03.2013 22:38 9,2 C 5,1 C 65 % 1000,3 hPa 0,0 l/m 0 min 0 min 0,0 UV-I 0 W/m 0,0 km/h (0 Bft)
06.03.2013 22:40 9,2 C 5,1 C 65 % 1000,2 hPa 0,0 l/m 0 min 0 min 0,0 UV-I 0 W/m 0,0 km/h (0 Bft)
06.03.2013 22:42 9,2 C 5,1 C 65 % 1000,3 hPa 0,0 l/m 0 min 0 min 0,0 UV-I 0 W/m 0,0 km/h (0 Bft)
06.03.2013 22:44 9,2 C 5,1 C 65 % 1000,3 hPa 0,0 l/m 0 min 0 min 0,0 UV-I 0 W/m 0,0 km/h (0 Bft)
06.03.2013 22:46 9,2 C 5,1 C 65 % 1000,3 hPa 0,0 l/m 0 min 0 min 0,0 UV-I 0 W/m 0,0 km/h (0 Bft)
06.03.2013 22:48 9,2 C 5,7 C 64 % 1000,3 hPa 0,0 l/m 0 min 0 min 0,0 UV-I 0 W/m 5,1 km/h (1 Bft)
06.03.2013 22:50 9,2 C 5,7 C 64 % 1000,3 hPa 0,0 l/m 0 min 0 min 0,0 UV-I 0 W/m 0,0 km/h (0 Bft)
06.03.2013 22:52 9,2 C 5,7 C 64 % 1000,3 hPa 0,0 l/m 0 min 0 min 0,0 UV-I 0 W/m 0,0 km/h (0 Bft)
06.03.2013 22:54 9,2 C 5,7 C 64 % 1000,3 hPa 0,0 l/m 0 min 0 min 0,0 UV-I 0 W/m 0,0 km/h (0 Bft)
06.03.2013 22:56 9,2 C 5,7 C 65 % 1000,3 hPa 0,0 l/m 0 min 0 min 0,0 UV-I 0 W/m 0,0 km/h (0 Bft)
06.03.2013 22:58 9,2 C 5,1 C 65 % 1000,3 hPa 0,0 l/m 0 min 0 min 0,0 UV-I 0 W/m 0,0 km/h (0 Bft)
06.03.2013 23:00 9,2 C 5,1 C 65 % 1000,3 hPa 0,0 l/m 0 min 0 min 0,0 UV-I 0 W/m 0,0 km/h (0 Bft)
06.03.2013 23:02 9,2 C 5,1 C 65 % 1000,3 hPa 0,0 l/m 0 min 0 min 0,0 UV-I 0 W/m 0,0 km/h (0 Bft)
06.03.2013 23:04 9,1 C 5,1 C 65 % 1000,2 hPa 0,0 l/m 0 min 0 min 0,0 UV-I 0 W/m 0,0 km/h (0 Bft)
06.03.2013 23:06 9,1 C 5,1 C 65 % 1000,2 hPa 0,0 l/m 0 min 0 min 0,0 UV-I 0 W/m 0,0 km/h (0 Bft)
06.03.2013 23:08 9,1 C 5,1 C 65 % 1000,2 hPa 0,0 l/m 0 min 0 min 0,0 UV-I 0 W/m 0,0 km/h (0 Bft)
06.03.2013 23:10 9,1 C 5,1 C 65 % 1000,2 hPa 0,0 l/m 0 min 0 min 0,0 UV-I 0 W/m 0,0 km/h (0 Bft)
06.03.2013 23:12 9,1 C 5,1 C 65 % 1000,2 hPa 0,0 l/m 0 min 0 min 0,0 UV-I 0 W/m 0,0 km/h (0 Bft)
06.03.2013 23:14 9,1 C 5,1 C 65 % 1000,2 hPa 0,0 l/m 0 min 0 min 0,0 UV-I 0 W/m 0,0 km/h (0 Bft)
06.03.2013 23:16 9,0 C 5,1 C 65 % 1000,2 hPa 0,0 l/m 0 min 0 min 0,0 UV-I 0 W/m 0,0 km/h (0 Bft)
06.03.2013 23:18 9,0 C 5,1 C 67 % 1000,2 hPa 0,0 l/m 0 min 0 min 0,0 UV-I 0 W/m 0,0 km/h (0 Bft)
06.03.2013 23:20 8,9 C 5,1 C 64 % 1000,2 hPa 0,0 l/m 0 min 0 min 0,0 UV-I 0 W/m 0,0 km/h (0 Bft)
06.03.2013 23:22 8,9 C 5,1 C 64 % 1000,2 hPa 0,0 l/m 0 min 0 min 0,0 UV-I 0 W/m 0,0 km/h (0 Bft)
06.03.2013 23:24 8,9 C 5,1 C 65 % 1000,1 hPa 0,0 l/m 0 min 0 min 0,0 UV-I 0 W/m 0,0 km/h (0 Bft)
06.03.2013 23:26 8,9 C 5,1 C 65 % 1000,2 hPa 0,0 l/m 0 min 0 min 0,0 UV-I 0 W/m 0,0 km/h (0 Bft)
06.03.2013 23:28 8,8 C 5,1 C 64 % 1000,2 hPa 0,0 l/m 0 min 0 min 0,0 UV-I 0 W/m 0,0 km/h (0 Bft)
06.03.2013 23:30 8,8 C 5,1 C 65 % 1000,1 hPa 0,0 l/m 0 min 0 min 0,0 UV-I 0 W/m 0,0 km/h (0 Bft)
06.03.2013 23:32 8,8 C 5,1 C 65 % 1000,1 hPa 0,0 l/m 0 min 0 min 0,0 UV-I 0 W/m 0,0 km/h (0 Bft)
06.03.2013 23:34 8,7 C 4,6 C 65 % 1000,1 hPa 0,0 l/m 0 min 0 min 0,0 UV-I 0 W/m 0,0 km/h (0 Bft)
06.03.2013 23:36 8,7 C 4,6 C 65 % 1000,1 hPa 0,0 l/m 0 min 0 min 0,0 UV-I 0 W/m 0,0 km/h (0 Bft)
06.03.2013 23:38 8,7 C 4,6 C 65 % 1000,1 hPa 0,0 l/m 0 min 0 min 0,0 UV-I 0 W/m 0,0 km/h (0 Bft)
06.03.2013 23:40 8,7 C 4,6 C 65 % 1000,1 hPa 0,0 l/m 0 min 0 min 0,0 UV-I 0 W/m 0,0 km/h (0 Bft)
06.03.2013 23:42 8,6 C 4,6 C 65 % 1000,0 hPa 0,0 l/m 0 min 0 min 0,0 UV-I 0 W/m 0,0 km/h (0 Bft)
06.03.2013 23:44 8,6 C 4,6 C 65 % 1000,0 hPa 0,0 l/m 0 min 0 min 0,0 UV-I 0 W/m 0,0 km/h (0 Bft)
06.03.2013 23:46 8,6 C 4,6 C 65 % 1000,1 hPa 0,0 l/m 0 min 0 min 0,0 UV-I 0 W/m 0,0 km/h (0 Bft)
06.03.2013 23:48 8,5 C 4,6 C 65 % 1000,1 hPa 0,0 l/m 0 min 0 min 0,0 UV-I 0 W/m 5,1 km/h (1 Bft)
06.03.2013 23:50 8,5 C 4,6 C 65 % 1000,0 hPa 0,0 l/m 0 min 0 min 0,0 UV-I 0 W/m 0,0 km/h (0 Bft)
06.03.2013 23:52 8,4 C 4,6 C 65 % 1000,1 hPa 0,0 l/m 0 min 0 min 0,0 UV-I 0 W/m 0,0 km/h (0 Bft)
06.03.2013 23:54 8,4 C 4,6 C 65 % 1000,1 hPa 0,0 l/m 0 min 0 min 0,0 UV-I 0 W/m 0,0 km/h (0 Bft)
06.03.2013 23:56 8,4 C 4,6 C 65 % 1000,1 hPa 0,0 l/m 0 min 0 min 0,0 UV-I 0 W/m 0,0 km/h (0 Bft)
06.03.2013 23:58 8,4 C 4,6 C 65 % 1000,0 hPa 0,0 l/m 0 min 0 min 0,0 UV-I 0 W/m 0,0 km/h (0 Bft)
_ Min-Zeit 07:52 03:16 13:32 17:10 - - - - - 00:08
Minimum _ 5,1 C 3,4 C 36 % 1000,0 hPa - - - - - 0,0 km/h (0 Bft)
_ Max-Zeit 15:48 15:54 07:50 00:00 00:00 08:52 00:00 12:36 12:44 00:56
Maximum _ 19,6 C 19,0 C 77 % 1006,0 hPa 0,0 l/m 2 min 0 min 1,6 UV-I 642 W/m 23,2 km/h
SO (4 Bft)
Durchschnitt _ 10,9 C 8,4 C 61 % 1002,5 hPa #0,0 l/m #5:58 h #0 min. 1,0 UV-I 260 W/m 7,0 km/h (2 Bft)
© 2013 W. Hausmann